| time (UTC) | temp F | wind direction | speed MPH | gust MPH | rain 1hr in | rain 24hr in | rain mn in | humidity % | barometer mb |
| 20260503002232 | 93 | 98 | 0.0 | 0.0 | 0.00 | 0.00 | 0.00 | 16 | 1008.9 |
| 20260503002133 | 93 | 98 | 0.0 | 2.0 | 0.00 | 0.00 | 0.00 | 17 | 1008.9 |
| 20260503002043 | 93 | 98 | 0.0 | 2.0 | 0.00 | 0.00 | 0.00 | 16 | 1008.9 |
| 20260503001934 | 93 | 100 | 0.0 | 2.0 | 0.00 | 0.00 | 0.00 | 16 | 1009.0 |
| 20260503001904 | 93 | 100 | 0.0 | 2.0 | 0.00 | 0.00 | 0.00 | 15 | 1009.0 |
| 20260503001724 | 93 | 189 | 0.0 | 2.0 | 0.00 | 0.00 | 0.00 | 14 | 1009.0 |
| 20260503001655 | 93 | 189 | 0.0 | 2.0 | 0.00 | 0.00 | 0.00 | 15 | 1009.0 |
| 20260503001519 | 93 | 189 | 0.0 | 2.0 | 0.00 | 0.00 | 0.00 | 14 | 1009.0 |
| 20260503001421 | 93 | 189 | 0.0 | 2.0 | 0.00 | 0.00 | 0.00 | 14 | 1009.0 |
| 20260503001324 | 93 | 189 | 0.0 | 2.0 | 0.00 | 0.00 | 0.00 | 14 | 1008.9 |
| 20260503001254 | 93 | 189 | 0.0 | 2.0 | 0.00 | 0.00 | 0.00 | 14 | 1009.0 |
| 20260503001202 | 93 | 189 | 0.0 | 3.0 | 0.00 | 0.00 | 0.00 | 14 | 1009.0 |
| 20260503001042 | 93 | 189 | 0.0 | 4.0 | 0.00 | 0.00 | 0.00 | 14 | 1008.9 |
| 20260503000922 | 93 | 189 | 0.0 | 4.0 | 0.00 | 0.00 | 0.00 | 14 | 1008.9 |
| 20260503000835 | 93 | 189 | 0.0 | 4.0 | 0.00 | 0.00 | 0.00 | 14 | 1008.9 |
| 20260503000718 | 93 | 189 | 0.0 | 5.0 | 0.00 | 0.00 | 0.00 | 15 | 1008.9 |
| 20260503000621 | 93 | 189 | 0.0 | 5.0 | 0.00 | 0.00 | 0.00 | 15 | 1008.9 |
| 20260503000551 | 93 | 160 | 0.0 | 5.0 | 0.00 | 0.00 | 0.00 | 14 | 1009.0 |
| 20260503000437 | 93 | 159 | 1.0 | 5.0 | 0.00 | 0.00 | 0.00 | 14 | 1009.0 |
| 20260503000319 | 94 | 159 | 2.0 | 7.0 | 0.00 | 0.00 | 0.00 | 14 | 1009.1 |
| 20260503000220 | 94 | 159 | 2.0 | 7.0 | 0.00 | 0.00 | 0.00 | 14 | 1009.1 |
| 20260503000127 | 94 | 133 | 1.0 | 7.0 | 0.00 | 0.00 | 0.00 | 14 | 1009.1 |
| 20260503000107 | 94 | 133 | 2.0 | 7.0 | 0.00 | 0.00 | 0.00 | 14 | 1009.1 |
| 20260502235944 | 94 | 118 | 2.0 | 7.0 | 0.00 | 0.00 | 0.00 | 14 | 1009.2 |
| 20260502235844 | 94 | 117 | 2.0 | 9.0 | 0.00 | 0.00 | 0.00 | 14 | 1009.1 |
| 20260502235733 | 94 | 99 | 1.0 | 9.0 | 0.00 | 0.00 | 0.00 | 14 | 1009.1 |
| 20260502235635 | 94 | 117 | 2.0 | 9.0 | 0.00 | 0.00 | 0.00 | 15 | 1009.1 |
| 20260502235516 | 94 | 83 | 2.0 | 9.0 | 0.00 | 0.00 | 0.00 | 15 | 1009.0 |
| 20260502235422 | 94 | 154 | 1.0 | 9.0 | 0.00 | 0.00 | 0.00 | 14 | 1009.0 |
| 20260502235331 | 95 | 156 | 2.0 | 9.0 | 0.00 | 0.00 | 0.00 | 14 | 1009.0 |
| 20260502235234 | 95 | 105 | 3.0 | 9.0 | 0.00 | 0.00 | 0.00 | 14 | 1009.0 |
| 20260502235141 | 95 | 80 | 2.0 | 9.0 | 0.00 | 0.00 | 0.00 | 15 | 1009.0 |
| 20260502235023 | 94 | 79 | 0.0 | 9.0 | 0.00 | 0.00 | 0.00 | 17 | 1009.0 |
| 20260502234945 | 94 | 60 | 0.0 | 1.0 | 0.00 | 0.00 | 0.00 | 14 | 1009.0 |
| 20260502234833 | 94 | 60 | 0.0 | 1.0 | 0.00 | 0.00 | 0.00 | 14 | 1009.0 |
| 20260502234718 | 94 | 60 | 0.0 | 1.0 | 0.00 | 0.00 | 0.00 | 14 | 1009.0 |
| 20260502234620 | 94 | 59 | 0.0 | 1.0 | 0.00 | 0.00 | 0.00 | 17 | 1009.0 |
| 20260502234529 | 93 | 60 | 0.0 | 1.0 | 0.00 | 0.00 | 0.00 | 15 | 1009.0 |
| 20260502234431 | 94 | 60 | 0.0 | 1.0 | 0.00 | 0.00 | 0.00 | 14 | 1009.0 |
| 20260502234333 | 94 | 60 | 0.0 | 1.0 | 0.00 | 0.00 | 0.00 | 14 | 1009.0 |
| 20260502234243 | 94 | 60 | 0.0 | 1.0 | 0.00 | 0.00 | 0.00 | 15 | 1009.1 |
| 20260502234127 | 94 | 60 | 0.0 | 1.0 | 0.00 | 0.00 | 0.00 | 14 | 1009.0 |
| 20260502234056 | 93 | 60 | 0.0 | 1.0 | 0.00 | 0.00 | 0.00 | 15 | 1009.1 |
| 20260502233917 | 93 | 60 | 0.0 | 1.0 | 0.00 | 0.00 | 0.00 | 15 | 1009.1 |
| 20260502233818 | 93 | 60 | 0.0 | 1.0 | 0.00 | 0.00 | 0.00 | 16 | 1009.1 |
| 20260502233721 | 93 | 60 | 0.0 | 1.0 | 0.00 | 0.00 | 0.00 | 16 | 1009.2 |
| 20260502233630 | 93 | 70 | 0.0 | 1.0 | 0.00 | 0.00 | 0.00 | 17 | 1009.1 |
| 20260502233516 | 93 | 70 | 0.0 | 1.0 | 0.00 | 0.00 | 0.00 | 15 | 1009.1 |
| 20260502233419 | 93 | 70 | 0.0 | 1.0 | 0.00 | 0.00 | 0.00 | 15 | 1009.1 |
| 20260502233329 | 93 | 70 | 0.0 | 1.0 | 0.00 | 0.00 | 0.00 | 14 | 1009.0 |
| 20260502233229 | 93 | 70 | 0.0 | 6.0 | 0.00 | 0.00 | 0.00 | 14 | 1009.0 |
| 20260502233158 | 94 | 70 | 0.0 | 6.0 | 0.00 | 0.00 | 0.00 | 14 | 1009.0 |
| 20260502233019 | 94 | 72 | 0.0 | 6.0 | 0.00 | 0.00 | 0.00 | 14 | 1009.0 |
| 20260502232925 | 95 | 72 | 0.0 | 6.0 | 0.00 | 0.00 | 0.00 | 14 | 1009.0 |
| 20260502232854 | 95 | 72 | 0.0 | 6.0 | 0.00 | 0.00 | 0.00 | 15 | 1008.9 |
| 20260502232735 | 95 | 72 | 0.0 | 6.0 | 0.00 | 0.00 | 0.00 | 15 | 1009.0 |
| 20260502232704 | 95 | 72 | 0.0 | 6.0 | 0.00 | 0.00 | 0.00 | 14 | 1009.0 |
| 20260502232525 | 95 | 66 | 1.0 | 6.0 | 0.00 | 0.00 | 0.00 | 15 | 1009.0 |
| 20260502232447 | 95 | 66 | 1.0 | 6.0 | 0.00 | 0.00 | 0.00 | 17 | 1008.9 |
| 20260502232355 | 95 | 44 | 1.0 | 6.0 | 0.00 | 0.00 | 0.00 | 16 | 1008.9 |
| 20260502232222 | 95 | 112 | 0.0 | 1.0 | 0.00 | 0.00 | 0.00 | 15 | 1009.0 |
| 20260502232122 | 94 | 113 | 0.0 | 1.0 | 0.00 | 0.00 | 0.00 | 16 | 1008.9 |
| 20260502232034 | 94 | 113 | 0.0 | 1.0 | 0.00 | 0.00 | 0.00 | 16 | 1009.0 |
| 20260502231934 | 94 | 116 | 0.0 | 1.0 | 0.00 | 0.00 | 0.00 | 14 | 1009.0 |
| 20260502231822 | 94 | 116 | 0.0 | 1.0 | 0.00 | 0.00 | 0.00 | 15 | 1009.0 |
| 20260502231724 | 95 | 116 | 0.0 | 1.0 | 0.00 | 0.00 | 0.00 | 15 | 1009.0 |
| 20260502231633 | 95 | 116 | 0.0 | 1.0 | 0.00 | 0.00 | 0.00 | 17 | 1009.0 |
| 20260502231535 | 95 | 116 | 0.0 | 3.0 | 0.00 | 0.00 | 0.00 | 15 | 1009.0 |
| 20260502231418 | 95 | 116 | 0.0 | 3.0 | 0.00 | 0.00 | 0.00 | 17 | 1009.1 |
| 20260502231332 | 95 | 116 | 0.0 | 3.0 | 0.00 | 0.00 | 0.00 | 17 | 1009.1 |
| 20260502231251 | 95 | 116 | 0.0 | 3.0 | 0.00 | 0.00 | 0.00 | 17 | 1009.2 |
| 20260502231118 | 94 | 116 | 0.0 | 3.0 | 0.00 | 0.00 | 0.00 | 16 | 1009.3 |
| 20260502231020 | 94 | 116 | 0.0 | 3.0 | 0.00 | 0.00 | 0.00 | 15 | 1009.2 |
| 20260502230923 | 94 | 116 | 0.0 | 3.0 | 0.00 | 0.00 | 0.00 | 14 | 1009.2 |
| 20260502230832 | 95 | 116 | 0.0 | 3.0 | 0.00 | 0.00 | 0.00 | 14 | 1009.1 |
| 20260502230717 | 95 | 115 | 0.0 | 3.0 | 0.00 | 0.00 | 0.00 | 14 | 1009.1 |
| 20260502230619 | 95 | 114 | 0.0 | 4.0 | 0.00 | 0.00 | 0.00 | 14 | 1009.1 |
| 20260502230522 | 95 | 113 | 0.0 | 4.0 | 0.00 | 0.00 | 0.00 | 14 | 1009.1 |
| 20260502230432 | 95 | 113 | 0.0 | 4.0 | 0.00 | 0.00 | 0.00 | 14 | 1009.1 |
| 20260502230333 | 95 | 113 | 0.0 | 4.0 | 0.00 | 0.00 | 0.00 | 14 | 1009.2 |
| 20260502230241 | 96 | 113 | 0.0 | 4.0 | 0.00 | 0.00 | 0.00 | 14 | 1009.3 |
| 20260502230122 | 96 | 113 | 0.0 | 4.0 | 0.00 | 0.00 | 0.00 | 16 | 1009.3 |
| 20260502230039 | 95 | 113 | 0.0 | 4.0 | 0.00 | 0.00 | 0.00 | 18 | 1009.2 |
| 20260502225936 | 95 | 113 | 1.0 | 4.0 | 0.00 | 0.00 | 0.00 | 17 | 1009.3 |
| 20260502225819 | 95 | 126 | 1.0 | 4.0 | 0.00 | 0.00 | 0.00 | 17 | 1009.3 |
| 20260502225741 | 95 | 147 | 1.0 | 4.0 | 0.00 | 0.00 | 0.00 | 16 | 1009.3 |
| 20260502225629 | 95 | 152 | 1.0 | 4.0 | 0.00 | 0.00 | 0.00 | 19 | 1009.3 |
| 20260502225551 | 95 | 94 | 0.0 | 5.0 | 0.00 | 0.00 | 0.00 | 18 | 1009.4 |
| 20260502225424 | 95 | 94 | 0.0 | 5.0 | 0.00 | 0.00 | 0.00 | 17 | 1009.3 |
| 20260502225324 | 95 | 94 | 0.0 | 5.0 | 0.00 | 0.00 | 0.00 | 15 | 1009.4 |
| 20260502225226 | 95 | 94 | 0.0 | 5.0 | 0.00 | 0.00 | 0.00 | 17 | 1009.4 |
| 20260502225133 | 95 | 94 | 0.0 | 5.0 | 0.00 | 0.00 | 0.00 | 16 | 1009.4 |
| 20260502225102 | 96 | 94 | 1.0 | 5.0 | 0.00 | 0.00 | 0.00 | 16 | 1009.4 |
| 20260502224921 | 96 | 94 | 1.0 | 6.0 | 0.00 | 0.00 | 0.00 | 16 | 1009.4 |
| 20260502224823 | 95 | 94 | 1.0 | 6.0 | 0.00 | 0.00 | 0.00 | 15 | 1009.6 |
| 20260502224729 | 95 | 94 | 2.0 | 6.0 | 0.00 | 0.00 | 0.00 | 15 | 1009.5 |
| 20260502224639 | 95 | 94 | 2.0 | 6.0 | 0.00 | 0.00 | 0.00 | 14 | 1009.6 |
| 20260502224540 | 95 | 91 | 1.0 | 6.0 | 0.00 | 0.00 | 0.00 | 16 | 1009.5 |
| 20260502224448 | 95 | 89 | 1.0 | 6.0 | 0.00 | 0.00 | 0.00 | 14 | 1009.5 |
| 20260502224329 | 95 | 90 | 1.0 | 6.0 | 0.00 | 0.00 | 0.00 | 14 | 1009.5 |
| 20260502224230 | 95 | 90 | 1.0 | 6.0 | 0.00 | 0.00 | 0.00 | 16 | 1009.4 |
| 20260502224140 | 95 | 91 | 1.0 | 6.0 | 0.00 | 0.00 | 0.00 | 16 | 1009.5 |
| 20260502224025 | 95 | 105 | 1.0 | 4.0 | 0.00 | 0.00 | 0.00 | 15 | 1009.5 |
| 20260502223927 | 95 | 105 | 0.0 | 4.0 | 0.00 | 0.00 | 0.00 | 17 | 1009.5 |
| 20260502223837 | 95 | 105 | 1.0 | 4.0 | 0.00 | 0.00 | 0.00 | 16 | 1009.6 |
| 20260502223717 | 95 | 105 | 1.0 | 4.0 | 0.00 | 0.00 | 0.00 | 16 | 1009.6 |
| 20260502223625 | 94 | 105 | 0.0 | 4.0 | 0.00 | 0.00 | 0.00 | 16 | 1009.7 |
| 20260502223527 | 94 | 106 | 0.0 | 4.0 | 0.00 | 0.00 | 0.00 | 15 | 1009.7 |
| 20260502223429 | 94 | 106 | 1.0 | 4.0 | 0.00 | 0.00 | 0.00 | 16 | 1009.8 |
| 20260502223341 | 94 | 106 | 1.0 | 4.0 | 0.00 | 0.00 | 0.00 | 14 | 1009.8 |
| 20260502223224 | 94 | 112 | 0.0 | 3.0 | 0.00 | 0.00 | 0.00 | 16 | 1009.8 |
| 20260502223125 | 95 | 47 | 0.0 | 2.0 | 0.00 | 0.00 | 0.00 | 16 | 1010.0 |
| 20260502223055 | 95 | 47 | 1.0 | 2.0 | 0.00 | 0.00 | 0.00 | 17 | 1009.9 |
| 20260502222916 | 95 | 47 | 0.0 | 2.0 | 0.00 | 0.00 | 0.00 | 16 | 1009.9 |
| 20260502222838 | 95 | 42 | 0.0 | 2.0 | 0.00 | 0.00 | 0.00 | 17 | 1009.9 |
| 20260502222730 | 95 | 37 | 0.0 | 5.0 | 0.00 | 0.00 | 0.00 | 15 | 1009.8 |
| 20260502222631 | 95 | 37 | 0.0 | 5.0 | 0.00 | 0.00 | 0.00 | 14 | 1009.8 |
| 20260502222601 | 95 | 37 | 0.0 | 5.0 | 0.00 | 0.00 | 0.00 | 14 | 1009.8 |
| 20260502222421 | 95 | 37 | 0.0 | 5.0 | 0.00 | 0.00 | 0.00 | 13 | 1009.8 |
| 20260502222324 | 95 | 37 | 0.0 | 5.0 | 0.00 | 0.00 | 0.00 | 17 | 1009.8 |
| 20260502222253 | 95 | 37 | 0.0 | 5.0 | 0.00 | 0.00 | 0.00 | 16 | 1009.8 |
| 20260502222133 | 96 | 37 | 0.0 | 5.0 | 0.00 | 0.00 | 0.00 | 14 | 1009.8 |
| 20260502222019 | 96 | 37 | 1.0 | 5.0 | 0.00 | 0.00 | 0.00 | 13 | 1009.8 |
| 20260502221927 | 95 | 37 | 1.0 | 5.0 | 0.00 | 0.00 | 0.00 | 14 | 1009.9 |
| 20260502221829 | 95 | 44 | 1.0 | 3.0 | 0.00 | 0.00 | 0.00 | 16 | 1009.9 |
| 20260502221732 | 95 | 51 | 1.0 | 2.0 | 0.00 | 0.00 | 0.00 | 16 | 1009.9 |
| 20260502221620 | 95 | 52 | 0.0 | 2.0 | 0.00 | 0.00 | 0.00 | 15 | 1010.0 |
| 20260502221522 | 95 | 53 | 0.0 | 1.0 | 0.00 | 0.00 | 0.00 | 14 | 1010.0 |
| 20260502221430 | 95 | 57 | 0.0 | 0.0 | 0.00 | 0.00 | 0.00 | 14 | 1010.0 |
| 20260502221338 | 95 | 57 | 0.0 | 1.0 | 0.00 | 0.00 | 0.00 | 16 | 1010.0 |
| 20260502221219 | 96 | 57 | 0.0 | 10.0 | 0.00 | 0.00 | 0.00 | 14 | 1010.1 |
| 20260502221122 | 96 | 57 | 0.0 | 10.0 | 0.00 | 0.00 | 0.00 | 16 | 1010.1 |
| 20260502221051 | 96 | 57 | 0.0 | 10.0 | 0.00 | 0.00 | 0.00 | 16 | 1010.0 |
| 20260502220932 | 96 | 57 | 0.0 | 10.0 | 0.00 | 0.00 | 0.00 | 16 | 1010.1 |
| 20260502220819 | 96 | 57 | 0.0 | 10.0 | 0.00 | 0.00 | 0.00 | 15 | 1010.1 |
| 20260502220725 | 97 | 57 | 0.0 | 10.0 | 0.00 | 0.00 | 0.00 | 18 | 1010.0 |
| 20260502220654 | 97 | 57 | 0.0 | 10.0 | 0.00 | 0.00 | 0.00 | 15 | 1010.1 |
| 20260502220535 | 97 | 57 | 2.0 | 10.0 | 0.00 | 0.00 | 0.00 | 15 | 1010.1 |
| 20260502220417 | 97 | 63 | 3.0 | 10.0 | 0.00 | 0.00 | 0.00 | 15 | 1010.1 |
| 20260502220321 | 97 | 63 | 3.0 | 8.0 | 0.00 | 0.00 | 0.00 | 15 | 1010.2 |
| 20260502220230 | 97 | 67 | 2.0 | 8.0 | 0.00 | 0.00 | 0.00 | 17 | 1010.2 |
| 20260502220117 | 97 | 63 | 1.0 | 8.0 | 0.00 | 0.00 | 0.00 | 18 | 1010.2 |
| 20260502220030 | 96 | 356 | 1.0 | 8.0 | 0.00 | 0.00 | 0.00 | 16 | 1010.3 |
| 20260502215928 | 96 | 356 | 0.0 | 8.0 | 0.00 | 0.00 | 0.00 | 17 | 1010.3 |
| 20260502215831 | 96 | 356 | 1.0 | 8.0 | 0.00 | 0.00 | 0.00 | 17 | 1010.3 |
| 20260502215733 | 95 | 356 | 2.0 | 8.0 | 0.00 | 0.00 | 0.00 | 17 | 1010.3 |
| 20260502215615 | 95 | 356 | 1.0 | 2.0 | 0.00 | 0.00 | 0.00 | 16 | 1010.4 |
| 20260502215529 | 95 | 356 | 0.0 | 2.0 | 0.00 | 0.00 | 0.00 | 17 | 1010.4 |
| 20260502215432 | 95 | 356 | 0.0 | 1.0 | 0.00 | 0.00 | 0.00 | 15 | 1010.4 |
| 20260502215334 | 95 | 356 | 0.0 | 1.0 | 0.00 | 0.00 | 0.00 | 14 | 1010.4 |
| 20260502215216 | 95 | 356 | 0.0 | 1.0 | 0.00 | 0.00 | 0.00 | 15 | 1010.4 |
| 20260502215124 | 95 | 359 | 0.0 | 1.0 | 0.00 | 0.00 | 0.00 | 15 | 1010.4 |
| 20260502215047 | 95 | 359 | 0.0 | 0.0 | 0.00 | 0.00 | 0.00 | 15 | 1010.4 |
| 20260502214919 | 95 | 359 | 0.0 | 0.0 | 0.00 | 0.00 | 0.00 | 17 | 1010.4 |
| 20260502214821 | 95 | 359 | 0.0 | 0.0 | 0.00 | 0.00 | 0.00 | 17 | 1010.5 |
| 20260502214723 | 95 | 359 | 0.0 | 0.0 | 0.00 | 0.00 | 0.00 | 17 | 1010.4 |
| 20260502214631 | 94 | 359 | 0.0 | 0.0 | 0.00 | 0.00 | 0.00 | 19 | 1010.4 |
| 20260502214534 | 94 | 359 | 0.0 | 2.0 | 0.00 | 0.00 | 0.00 | 15 | 1010.5 |
| 20260502214416 | 94 | 359 | 0.0 | 4.0 | 0.00 | 0.00 | 0.00 | 14 | 1010.5 |
| 20260502214329 | 94 | 359 | 0.0 | 4.0 | 0.00 | 0.00 | 0.00 | 15 | 1010.6 |
| 20260502214250 | 94 | 359 | 0.0 | 4.0 | 0.00 | 0.00 | 0.00 | 16 | 1010.6 |
| 20260502214138 | 94 | 359 | 0.0 | 4.0 | 0.00 | 0.00 | 0.00 | 16 | 1010.6 |
| 20260502214020 | 94 | 19 | 0.0 | 4.0 | 0.00 | 0.00 | 0.00 | 15 | 1010.6 |
| 20260502213921 | 94 | 12 | 0.0 | 4.0 | 0.00 | 0.00 | 0.00 | 16 | 1010.6 |
| 20260502213822 | 94 | 11 | 0.0 | 4.0 | 0.00 | 0.00 | 0.00 | 17 | 1010.6 |
| 20260502213733 | 94 | 11 | 1.0 | 5.0 | 0.00 | 0.00 | 0.00 | 18 | 1010.6 |
| 20260502213617 | 93 | 13 | 0.0 | 5.0 | 0.00 | 0.00 | 0.00 | 15 | 1010.5 |
| 20260502213519 | 93 | 137 | 1.0 | 9.0 | 0.00 | 0.00 | 0.00 | 14 | 1010.6 |
| 20260502213427 | 94 | 137 | 1.0 | 9.0 | 0.00 | 0.00 | 0.00 | 14 | 1010.5 |
| 20260502213356 | 94 | 137 | 1.0 | 9.0 | 0.00 | 0.00 | 0.00 | 14 | 1010.5 |
| 20260502213217 | 94 | 138 | 1.0 | 9.0 | 0.00 | 0.00 | 0.00 | 14 | 1010.6 |
| 20260502213120 | 94 | 137 | 1.0 | 9.0 | 0.00 | 0.00 | 0.00 | 14 | 1010.6 |
| 20260502213026 | 94 | 137 | 2.0 | 9.0 | 0.00 | 0.00 | 0.00 | 14 | 1010.6 |
| 20260502212954 | 94 | 131 | 1.0 | 9.0 | 0.00 | 0.00 | 0.00 | 14 | 1010.6 |
| 20260502212840 | 94 | 126 | 1.0 | 9.0 | 0.00 | 0.00 | 0.00 | 15 | 1010.6 |
| 20260502212721 | 95 | 115 | 3.0 | 9.0 | 0.00 | 0.00 | 0.00 | 14 | 1010.8 |
| 20260502212623 | 95 | 87 | 3.0 | 9.0 | 0.00 | 0.00 | 0.00 | 14 | 1010.7 |
| 20260502212524 | 95 | 117 | 1.0 | 6.0 | 0.00 | 0.00 | 0.00 | 15 | 1010.7 |
| 20260502212434 | 94 | 58 | 0.0 | 3.0 | 0.00 | 0.00 | 0.00 | 16 | 1010.7 |
| 20260502212339 | 94 | 57 | 0.0 | 3.0 | 0.00 | 0.00 | 0.00 | 15 | 1010.7 |
| 20260502212228 | 94 | 57 | 0.0 | 3.0 | 0.00 | 0.00 | 0.00 | 15 | 1010.7 |
| 20260502212129 | 94 | 57 | 0.0 | 3.0 | 0.00 | 0.00 | 0.00 | 16 | 1010.8 |
| 20260502212032 | 94 | 57 | 0.0 | 3.0 | 0.00 | 0.00 | 0.00 | 16 | 1010.8 |
| 20260502211940 | 94 | 57 | 0.0 | 3.0 | 0.00 | 0.00 | 0.00 | 16 | 1010.8 |
| 20260502211822 | 94 | 58 | 0.0 | 4.0 | 0.00 | 0.00 | 0.00 | 16 | 1011.0 |
| 20260502211728 | 94 | 58 | 1.0 | 4.0 | 0.00 | 0.00 | 0.00 | 15 | 1011.0 |
| 20260502211636 | 95 | 60 | 1.0 | 4.0 | 0.00 | 0.00 | 0.00 | 17 | 1011.1 |
| 20260502211518 | 94 | 58 | 1.0 | 4.0 | 0.00 | 0.00 | 0.00 | 16 | 1011.1 |
| 20260502211441 | 94 | 70 | 1.0 | 4.0 | 0.00 | 0.00 | 0.00 | 17 | 1011.1 |
| 20260502211329 | 94 | 71 | 1.0 | 4.0 | 0.00 | 0.00 | 0.00 | 15 | 1011.1 |
| 20260502211231 | 94 | 71 | 1.0 | 4.0 | 0.00 | 0.00 | 0.00 | 15 | 1011.1 |
| 20260502211134 | 95 | 71 | 1.0 | 4.0 | 0.00 | 0.00 | 0.00 | 18 | 1011.1 |
| 20260502211046 | 95 | 71 | 1.0 | 4.0 | 0.00 | 0.00 | 0.00 | 17 | 1011.1 |
| 20260502210926 | 94 | 84 | 1.0 | 5.0 | 0.00 | 0.00 | 0.00 | 16 | 1011.1 |
| 20260502210836 | 94 | 105 | 1.0 | 5.0 | 0.00 | 0.00 | 0.00 | 16 | 1011.0 |
| 20260502210756 | 94 | 105 | 1.0 | 5.0 | 0.00 | 0.00 | 0.00 | 15 | 1011.1 |
| 20260502210616 | 94 | 103 | 0.0 | 5.0 | 0.00 | 0.00 | 0.00 | 15 | 1011.1 |
| 20260502210526 | 94 | 59 | 0.0 | 5.0 | 0.00 | 0.00 | 0.00 | 15 | 1011.2 |
| 20260502210428 | 95 | 1 | 0.0 | 5.0 | 0.00 | 0.00 | 0.00 | 16 | 1011.2 |
| 20260502210336 | 95 | 1 | 1.0 | 5.0 | 0.00 | 0.00 | 0.00 | 16 | 1011.2 |
| 20260502210217 | 95 | 1 | 2.0 | 5.0 | 0.00 | 0.00 | 0.00 | 18 | 1011.2 |
| 20260502210125 | 95 | 1 | 2.0 | 5.0 | 0.00 | 0.00 | 0.00 | 18 | 1011.2 |
| 20260502210047 | 95 | 1 | 2.0 | 5.0 | 0.00 | 0.00 | 0.00 | 18 | 1011.2 |
| 20260502205917 | 94 | 354 | 1.0 | 5.0 | 0.00 | 0.00 | 0.00 | 17 | 1011.2 |
| 20260502205839 | 94 | 55 | 0.0 | 2.0 | 0.00 | 0.00 | 0.00 | 19 | 1011.2 |
| 20260502205746 | 93 | 74 | 0.0 | 2.0 | 0.00 | 0.00 | 0.00 | 18 | 1011.2 |
| 20260502205631 | 93 | 78 | 0.0 | 3.0 | 0.00 | 0.00 | 0.00 | 17 | 1011.2 |
| 20260502205540 | 94 | 78 | 0.0 | 4.0 | 0.00 | 0.00 | 0.00 | 15 | 1011.2 |
| 20260502205421 | 95 | 78 | 0.0 | 6.0 | 0.00 | 0.00 | 0.00 | 16 | 1011.3 |
| 20260502205323 | 96 | 78 | 1.0 | 9.0 | 0.00 | 0.00 | 0.00 | 16 | 1011.3 |
| 20260502205250 | 96 | 78 | 1.0 | 9.0 | 0.00 | 0.00 | 0.00 | 16 | 1011.3 |
| 20260502205159 | 96 | 81 | 1.0 | 9.0 | 0.00 | 0.00 | 0.00 | 17 | 1011.3 |
| 20260502205020 | 96 | 84 | 1.0 | 9.0 | 0.00 | 0.00 | 0.00 | 17 | 1011.4 |
| 20260502204927 | 96 | 84 | 1.0 | 9.0 | 0.00 | 0.00 | 0.00 | 17 | 1011.3 |
| 20260502204835 | 96 | 82 | 1.0 | 9.0 | 0.00 | 0.00 | 0.00 | 17 | 1011.4 |
| 20260502204718 | 96 | 70 | 1.0 | 9.0 | 0.00 | 0.00 | 0.00 | 17 | 1011.4 |
| 20260502204619 | 96 | 10 | 2.0 | 9.0 | 0.00 | 0.00 | 0.00 | 19 | 1011.4 |
| 20260502204527 | 97 | 27 | 2.0 | 9.0 | 0.00 | 0.00 | 0.00 | 17 | 1011.5 |
| 20260502204456 | 96 | 50 | 2.0 | 9.0 | 0.00 | 0.00 | 0.00 | 16 | 1011.4 |
| 20260502204337 | 96 | 30 | 1.0 | 7.0 | 0.00 | 0.00 | 0.00 | 18 | 1011.5 |
| 20260502204223 | 95 | 41 | 1.0 | 3.0 | 0.00 | 0.00 | 0.00 | 18 | 1011.5 |
| 20260502204131 | 95 | 56 | 1.0 | 3.0 | 0.00 | 0.00 | 0.00 | 17 | 1011.4 |
| 20260502204032 | 95 | 68 | 1.0 | 3.0 | 0.00 | 0.00 | 0.00 | 17 | 1011.5 |
| 20260502204000 | 95 | 69 | 0.0 | 4.0 | 0.00 | 0.00 | 0.00 | 16 | 1011.5 |
| 20260502203821 | 94 | 99 | 0.0 | 9.0 | 0.00 | 0.00 | 0.00 | 17 | 1011.6 |
| 20260502203750 | 94 | 99 | 0.0 | 13.0 | 0.00 | 0.00 | 0.00 | 15 | 1011.5 |
| 20260502203632 | 94 | 100 | 0.0 | 13.0 | 0.00 | 0.00 | 0.00 | 14 | 1011.5 |
| 20260502203539 | 95 | 99 | 0.0 | 13.0 | 0.00 | 0.00 | 0.00 | 14 | 1011.6 |
| 20260502203427 | 95 | 99 | 0.0 | 13.0 | 0.00 | 0.00 | 0.00 | 14 | 1011.5 |
| 20260502203329 | 96 | 55 | 1.0 | 13.0 | 0.00 | 0.00 | 0.00 | 16 | 1011.5 |
| 20260502203231 | 96 | 55 | 2.0 | 13.0 | 0.00 | 0.00 | 0.00 | 16 | 1011.6 |
| 20260502203119 | 96 | 44 | 4.0 | 13.0 | 0.00 | 0.00 | 0.00 | 14 | 1011.5 |
| 20260502203021 | 96 | 38 | 3.0 | 13.0 | 0.00 | 0.00 | 0.00 | 16 | 1011.6 |
| 20260502202922 | 96 | 56 | 1.0 | 11.0 | 0.00 | 0.00 | 0.00 | 17 | 1011.6 |
| 20260502202835 | 96 | 55 | 1.0 | 11.0 | 0.00 | 0.00 | 0.00 | 15 | 1011.6 |
| 20260502202717 | 96 | 58 | 2.0 | 11.0 | 0.00 | 0.00 | 0.00 | 17 | 1011.6 |
| 20260502202620 | 96 | 79 | 2.0 | 11.0 | 0.00 | 0.00 | 0.00 | 17 | 1011.6 |
| 20260502202522 | 95 | 172 | 1.0 | 7.0 | 0.00 | 0.00 | 0.00 | 19 | 1011.7 |
| 20260502202430 | 94 | 176 | 2.0 | 7.0 | 0.00 | 0.00 | 0.00 | 17 | 1011.8 |
| 20260502202317 | 94 | 176 | 2.0 | 7.0 | 0.00 | 0.00 | 0.00 | 17 | 1011.9 |
| 20260502202223 | 93 | 176 | 1.0 | 4.0 | 0.00 | 0.00 | 0.00 | 16 | 1011.8 |
| 20260502202125 | 93 | 176 | 1.0 | 4.0 | 0.00 | 0.00 | 0.00 | 15 | 1011.8 |
| 20260502202035 | 93 | 176 | 1.0 | 4.0 | 0.00 | 0.00 | 0.00 | 14 | 1011.8 |
| 20260502201938 | 94 | 176 | 1.0 | 4.0 | 0.00 | 0.00 | 0.00 | 14 | 1011.8 |
| 20260502201846 | 94 | 176 | 1.0 | 4.0 | 0.00 | 0.00 | 0.00 | 14 | 1011.7 |
| 20260502201727 | 94 | 173 | 0.0 | 4.0 | 0.00 | 0.00 | 0.00 | 16 | 1011.7 |
| 20260502201656 | 93 | 173 | 0.0 | 4.0 | 0.00 | 0.00 | 0.00 | 14 | 1011.7 |
| 20260502201521 | 93 | 173 | 0.0 | 4.0 | 0.00 | 0.00 | 0.00 | 14 | 1011.7 |
| 20260502201443 | 94 | 109 | 0.0 | 4.0 | 0.00 | 0.00 | 0.00 | 14 | 1011.7 |
| 20260502201332 | 94 | 108 | 0.0 | 4.0 | 0.00 | 0.00 | 0.00 | 14 | 1011.7 |
| 20260502201233 | 94 | 108 | 0.0 | 4.0 | 0.00 | 0.00 | 0.00 | 15 | 1011.7 |
| 20260502201141 | 94 | 108 | 1.0 | 4.0 | 0.00 | 0.00 | 0.00 | 16 | 1011.7 |
| 20260502201023 | 94 | 108 | 2.0 | 4.0 | 0.00 | 0.00 | 0.00 | 15 | 1011.6 |
| 20260502200926 | 94 | 107 | 1.0 | 6.0 | 0.00 | 0.00 | 0.00 | 15 | 1011.7 |
| 20260502200839 | 93 | 105 | 1.0 | 8.0 | 0.00 | 0.00 | 0.00 | 17 | 1011.6 |
| 20260502200721 | 93 | 115 | 0.0 | 8.0 | 0.00 | 0.00 | 0.00 | 18 | 1011.5 |
| 20260502200624 | 93 | 115 | 0.0 | 9.0 | 0.00 | 0.00 | 0.00 | 18 | 1011.6 |
| 20260502200526 | 92 | 115 | 0.0 | 9.0 | 0.00 | 0.00 | 0.00 | 16 | 1011.7 |
| 20260502200434 | 92 | 115 | 0.0 | 9.0 | 0.00 | 0.00 | 0.00 | 17 | 1011.7 |
| 20260502200317 | 92 | 115 | 1.0 | 9.0 | 0.00 | 0.00 | 0.00 | 17 | 1011.7 |
| 20260502200223 | 92 | 115 | 3.0 | 9.0 | 0.00 | 0.00 | 0.00 | 16 | 1011.7 |
| 20260502200131 | 92 | 115 | 4.0 | 9.0 | 0.00 | 0.00 | 0.00 | 16 | 1011.8 |
| 20260502200113 | 93 | 115 | 4.0 | 9.0 | 0.00 | 0.00 | 0.00 | 16 | 1011.8 |
| 20260502195920 | 93 | 122 | 4.0 | 9.0 | 0.00 | 0.00 | 0.00 | 17 | 1011.7 |
| 20260502195821 | 93 | 112 | 5.0 | 9.0 | 0.00 | 0.00 | 0.00 | 16 | 1011.8 |
| 20260502195750 | 93 | 147 | 3.0 | 8.0 | 0.00 | 0.00 | 0.00 | 17 | 1011.8 |
| 20260502195658 | 93 | 137 | 1.0 | 7.0 | 0.00 | 0.00 | 0.00 | 18 | 1011.8 |
| 20260502195519 | 92 | 140 | 0.0 | 8.0 | 0.00 | 0.00 | 0.00 | 20 | 1011.8 |
| 20260502195426 | 93 | 232 | 0.0 | 8.0 | 0.00 | 0.00 | 0.00 | 19 | 1011.8 |
| 20260502195329 | 93 | 232 | 0.0 | 8.0 | 0.00 | 0.00 | 0.00 | 22 | 1011.9 |
| 20260502195238 | 93 | 99 | 0.0 | 9.0 | 0.00 | 0.00 | 0.00 | 17 | 1011.9 |
| 20260502195118 | 93 | 99 | 2.0 | 9.0 | 0.00 | 0.00 | 0.00 | 18 | 1012.0 |
| 20260502195019 | 93 | 100 | 2.0 | 9.0 | 0.00 | 0.00 | 0.00 | 19 | 1012.0 |
| 20260502194928 | 93 | 93 | 2.0 | 9.0 | 0.00 | 0.00 | 0.00 | 19 | 1012.0 |
| 20260502194815 | 93 | 85 | 3.0 | 9.0 | 0.00 | 0.00 | 0.00 | 18 | 1012.1 |
| 20260502194716 | 94 | 90 | 3.0 | 9.0 | 0.00 | 0.00 | 0.00 | 18 | 1012.0 |
| 20260502194626 | 94 | 74 | 3.0 | 9.0 | 0.00 | 0.00 | 0.00 | 18 | 1012.1 |
| 20260502194517 | 94 | 47 | 4.0 | 9.0 | 0.00 | 0.00 | 0.00 | 20 | 1012.2 |
| 20260502194446 | 93 | 59 | 3.0 | 9.0 | 0.00 | 0.00 | 0.00 | 20 | 1012.1 |
| 20260502194326 | 93 | 96 | 2.0 | 6.0 | 0.00 | 0.00 | 0.00 | 20 | 1012.2 |
| 20260502194228 | 93 | 84 | 1.0 | 6.0 | 0.00 | 0.00 | 0.00 | 19 | 1012.3 |
| 20260502194143 | 93 | 84 | 0.0 | 8.0 | 0.00 | 0.00 | 0.00 | 18 | 1012.3 |
| 20260502194045 | 93 | 78 | 0.0 | 10.0 | 0.00 | 0.00 | 0.00 | 17 | 1012.3 |
| 20260502193931 | 94 | 78 | 2.0 | 12.0 | 0.00 | 0.00 | 0.00 | 17 | 1012.4 |
| 20260502193833 | 94 | 78 | 2.0 | 12.0 | 0.00 | 0.00 | 0.00 | 19 | 1012.4 |
| 20260502193734 | 94 | 75 | 2.0 | 12.0 | 0.00 | 0.00 | 0.00 | 18 | 1012.2 |
| 20260502193616 | 94 | 86 | 2.0 | 12.0 | 0.00 | 0.00 | 0.00 | 19 | 1012.3 |
| 20260502193523 | 94 | 87 | 2.0 | 12.0 | 0.00 | 0.00 | 0.00 | 19 | 1012.4 |
| 20260502193436 | 93 | 94 | 2.0 | 12.0 | 0.00 | 0.00 | 0.00 | 19 | 1012.4 |
| 20260502193318 | 93 | 53 | 4.0 | 12.0 | 0.00 | 0.00 | 0.00 | 19 | 1012.4 |
| 20260502193219 | 93 | 98 | 5.0 | 12.0 | 0.00 | 0.00 | 0.00 | 19 | 1012.5 |
| 20260502193121 | 93 | 92 | 3.0 | 9.0 | 0.00 | 0.00 | 0.00 | 19 | 1012.4 |
| 20260502193031 | 93 | 114 | 2.0 | 9.0 | 0.00 | 0.00 | 0.00 | 19 | 1012.5 |
| 20260502192932 | 92 | 101 | 0.0 | 3.0 | 0.00 | 0.00 | 0.00 | 20 | 1012.5 |
| 20260502192817 | 92 | 101 | 0.0 | 3.0 | 0.00 | 0.00 | 0.00 | 20 | 1012.5 |
| 20260502192720 | 91 | 101 | 1.0 | 5.0 | 0.00 | 0.00 | 0.00 | 21 | 1012.5 |
| 20260502192626 | 91 | 101 | 1.0 | 9.0 | 0.00 | 0.00 | 0.00 | 21 | 1012.4 |
| 20260502192528 | 91 | 102 | 1.0 | 9.0 | 0.00 | 0.00 | 0.00 | 19 | 1012.5 |
| 20260502192438 | 91 | 109 | 1.0 | 9.0 | 0.00 | 0.00 | 0.00 | 19 | 1012.5 |
| 20260502192341 | 91 | 117 | 1.0 | 9.0 | 0.00 | 0.00 | 0.00 | 19 | 1012.6 |
| 20260502192233 | 91 | 117 | 1.0 | 9.0 | 0.00 | 0.00 | 0.00 | 21 | 1012.5 |
| 20260502192154 | 91 | 118 | 0.0 | 9.0 | 0.00 | 0.00 | 0.00 | 21 | 1012.5 |
| 20260502192020 | 91 | 117 | 1.0 | 10.0 | 0.00 | 0.00 | 0.00 | 20 | 1012.5 |
| 20260502191942 | 92 | 117 | 2.0 | 10.0 | 0.00 | 0.00 | 0.00 | 21 | 1012.5 |
| 20260502191830 | 91 | 92 | 3.0 | 10.0 | 0.00 | 0.00 | 0.00 | 20 | 1012.5 |
| 20260502191732 | 91 | 79 | 4.0 | 10.0 | 0.00 | 0.00 | 0.00 | 20 | 1012.5 |
| 20260502191633 | 91 | 114 | 4.0 | 10.0 | 0.00 | 0.00 | 0.00 | 20 | 1012.5 |
| 20260502191518 | 92 | 112 | 4.0 | 10.0 | 0.00 | 0.00 | 0.00 | 20 | 1012.6 |
| 20260502191428 | 92 | 111 | 5.0 | 10.0 | 0.00 | 0.00 | 0.00 | 20 | 1012.6 |
| 20260502191331 | 92 | 99 | 5.0 | 10.0 | 0.00 | 0.00 | 0.00 | 20 | 1012.6 |
| 20260502191234 | 92 | 105 | 5.0 | 10.0 | 0.00 | 0.00 | 0.00 | 20 | 1012.8 |
| 20260502191143 | 92 | 110 | 4.0 | 10.0 | 0.00 | 0.00 | 0.00 | 21 | 1012.7 |
| 20260502191024 | 92 | 84 | 3.0 | 10.0 | 0.00 | 0.00 | 0.00 | 22 | 1012.7 |
| 20260502190927 | 92 | 77 | 3.0 | 10.0 | 0.00 | 0.00 | 0.00 | 20 | 1012.7 |
| 20260502190818 | 92 | 108 | 4.0 | 10.0 | 0.00 | 0.00 | 0.00 | 21 | 1012.8 |
| 20260502190720 | 92 | 116 | 4.0 | 10.0 | 0.00 | 0.00 | 0.00 | 21 | 1012.7 |
| 20260502190629 | 92 | 131 | 3.0 | 10.0 | 0.00 | 0.00 | 0.00 | 21 | 1012.7 |
| 20260502190532 | 92 | 116 | 1.0 | 10.0 | 0.00 | 0.00 | 0.00 | 22 | 1012.7 |
| 20260502190432 | 91 | 114 | 1.0 | 10.0 | 0.00 | 0.00 | 0.00 | 23 | 1012.7 |
| 20260502190342 | 91 | 115 | 2.0 | 10.0 | 0.00 | 0.00 | 0.00 | 21 | 1012.7 |
| 20260502190227 | 91 | 90 | 1.0 | 11.0 | 0.00 | 0.00 | 0.00 | 23 | 1012.7 |
| 20260502190149 | 91 | 61 | 1.0 | 11.0 | 0.00 | 0.00 | 0.00 | 22 | 1012.7 |
| 20260502190030 | 91 | 97 | 1.0 | 11.0 | 0.00 | 0.00 | 0.00 | 22 | 1012.7 |
| 20260502185939 | 91 | 67 | 0.0 | 11.0 | 0.00 | 0.00 | 0.00 | 23 | 1012.8 |
| 20260502185827 | 91 | 75 | 0.0 | 11.0 | 0.00 | 0.00 | 0.00 | 22 | 1012.7 |
| 20260502185729 | 91 | 113 | 1.0 | 11.0 | 0.00 | 0.00 | 0.00 | 22 | 1012.7 |
| 20260502185630 | 91 | 123 | 2.0 | 11.0 | 0.00 | 0.00 | 0.00 | 23 | 1012.7 |
| 20260502185522 | 90 | 84 | 4.0 | 11.0 | 0.00 | 0.00 | 0.00 | 22 | 1012.6 |
| 20260502185424 | 90 | 113 | 6.0 | 11.0 | 0.00 | 0.00 | 0.00 | 22 | 1012.8 |
| 20260502185325 | 90 | 98 | 4.0 | 11.0 | 0.00 | 0.00 | 0.00 | 22 | 1012.8 |
| 20260502185234 | 90 | 104 | 3.0 | 11.0 | 0.00 | 0.00 | 0.00 | 22 | 1012.8 |
| 20260502185134 | 90 | 100 | 3.0 | 11.0 | 0.00 | 0.00 | 0.00 | 21 | 1012.7 |
| 20260502185017 | 90 | 121 | 5.0 | 11.0 | 0.00 | 0.00 | 0.00 | 22 | 1012.8 |
| 20260502184921 | 90 | 112 | 5.0 | 13.0 | 0.00 | 0.00 | 0.00 | 22 | 1012.9 |
| 20260502184850 | 90 | 125 | 4.0 | 13.0 | 0.00 | 0.00 | 0.00 | 22 | 1012.8 |
| 20260502184731 | 90 | 133 | 5.0 | 13.0 | 0.00 | 0.00 | 0.00 | 21 | 1012.9 |
| 20260502184639 | 91 | 136 | 5.0 | 13.0 | 0.00 | 0.00 | 0.00 | 21 | 1012.9 |
| 20260502184521 | 91 | 116 | 2.0 | 13.0 | 0.00 | 0.00 | 0.00 | 21 | 1012.9 |
| 20260502184423 | 91 | 112 | 2.0 | 13.0 | 0.00 | 0.00 | 0.00 | 22 | 1013.0 |
| 20260502184336 | 92 | 101 | 2.0 | 13.0 | 0.00 | 0.00 | 0.00 | 23 | 1013.0 |
| 20260502184238 | 91 | 110 | 5.0 | 13.0 | 0.00 | 0.00 | 0.00 | 22 | 1012.9 |
| 20260502184119 | 92 | 129 | 4.0 | 13.0 | 0.00 | 0.00 | 0.00 | 24 | 1012.9 |
| 20260502184049 | 91 | 85 | 3.0 | 13.0 | 0.00 | 0.00 | 0.00 | 24 | 1012.9 |
| 20260502183930 | 91 | 70 | 4.0 | 13.0 | 0.00 | 0.00 | 0.00 | 24 | 1012.9 |
| 20260502183840 | 91 | 56 | 3.0 | 12.0 | 0.00 | 0.00 | 0.00 | 24 | 1013.0 |
| 20260502183722 | 90 | 71 | 4.0 | 12.0 | 0.00 | 0.00 | 0.00 | 24 | 1013.0 |
| 20260502183648 | 90 | 94 | 6.0 | 12.0 | 0.00 | 0.00 | 0.00 | 23 | 1013.1 |
| 20260502183534 | 90 | 110 | 4.0 | 12.0 | 0.00 | 0.00 | 0.00 | 23 | 1013.1 |
| 20260502183454 | 91 | 115 | 2.0 | 10.0 | 0.00 | 0.00 | 0.00 | 23 | 1013.0 |
| 20260502183343 | 91 | 115 | 3.0 | 11.0 | 0.00 | 0.00 | 0.00 | 23 | 1013.0 |
| 20260502183224 | 90 | 121 | 4.0 | 11.0 | 0.00 | 0.00 | 0.00 | 24 | 1013.2 |
| 20260502183133 | 90 | 103 | 3.0 | 11.0 | 0.00 | 0.00 | 0.00 | 25 | 1013.1 |
| 20260502183035 | 90 | 136 | 3.0 | 11.0 | 0.00 | 0.00 | 0.00 | 25 | 1013.1 |
| 20260502182931 | 90 | 129 | 4.0 | 11.0 | 0.00 | 0.00 | 0.00 | 23 | 1013.1 |
| 20260502182839 | 90 | 110 | 6.0 | 11.0 | 0.00 | 0.00 | 0.00 | 23 | 1013.1 |
| 20260502182721 | 90 | 94 | 4.0 | 13.0 | 0.00 | 0.00 | 0.00 | 23 | 1013.2 |
| 20260502182624 | 90 | 123 | 4.0 | 13.0 | 0.00 | 0.00 | 0.00 | 24 | 1013.1 |
| 20260502182526 | 90 | 110 | 6.0 | 13.0 | 0.00 | 0.00 | 0.00 | 23 | 1013.2 |
| 20260502182436 | 90 | 120 | 5.0 | 13.0 | 0.00 | 0.00 | 0.00 | 23 | 1013.2 |
| 20260502182322 | 90 | 131 | 3.0 | 13.0 | 0.00 | 0.00 | 0.00 | 24 | 1013.3 |
| 20260502182221 | 90 | 102 | 3.0 | 13.0 | 0.00 | 0.00 | 0.00 | 23 | 1013.4 |
| 20260502182130 | 90 | 120 | 3.0 | 13.0 | 0.00 | 0.00 | 0.00 | 23 | 1013.5 |
| 20260502182033 | 91 | 113 | 4.0 | 13.0 | 0.00 | 0.00 | 0.00 | 24 | 1013.5 |
| 20260502181935 | 91 | 111 | 3.0 | 13.0 | 0.00 | 0.00 | 0.00 | 24 | 1013.5 |
| 20260502181818 | 91 | 77 | 1.0 | 10.0 | 0.00 | 0.00 | 0.00 | 26 | 1013.5 |
| 20260502181730 | 91 | 75 | 2.0 | 10.0 | 0.00 | 0.00 | 0.00 | 26 | 1013.5 |
| 20260502181632 | 90 | 80 | 2.0 | 10.0 | 0.00 | 0.00 | 0.00 | 27 | 1013.4 |
| 20260502181542 | 90 | 75 | 4.0 | 11.0 | 0.00 | 0.00 | 0.00 | 26 | 1013.4 |
| 20260502181423 | 89 | 74 | 2.0 | 11.0 | 0.00 | 0.00 | 0.00 | 26 | 1013.5 |
| 20260502181325 | 89 | 105 | 1.0 | 11.0 | 0.00 | 0.00 | 0.00 | 26 | 1013.6 |
| 20260502181226 | 89 | 105 | 2.0 | 11.0 | 0.00 | 0.00 | 0.00 | 25 | 1013.6 |
| 20260502181140 | 89 | 105 | 2.0 | 11.0 | 0.00 | 0.00 | 0.00 | 26 | 1013.7 |
| 20260502181022 | 89 | 114 | 4.0 | 11.0 | 0.00 | 0.00 | 0.00 | 25 | 1013.7 |
| 20260502180922 | 89 | 121 | 5.0 | 11.0 | 0.00 | 0.00 | 0.00 | 25 | 1013.7 |
| 20260502180832 | 89 | 94 | 4.0 | 11.0 | 0.00 | 0.00 | 0.00 | 25 | 1013.7 |
| 20260502180734 | 89 | 108 | 3.0 | 10.0 | 0.00 | 0.00 | 0.00 | 26 | 1013.7 |
| 20260502180617 | 88 | 79 | 4.0 | 10.0 | 0.00 | 0.00 | 0.00 | 26 | 1013.7 |
| 20260502180523 | 88 | 129 | 4.0 | 10.0 | 0.00 | 0.00 | 0.00 | 26 | 1013.7 |
| 20260502180432 | 88 | 128 | 3.0 | 10.0 | 0.00 | 0.00 | 0.00 | 26 | 1013.7 |
| 20260502180333 | 88 | 121 | 2.0 | 10.0 | 0.00 | 0.00 | 0.00 | 26 | 1013.7 |
| 20260502180235 | 89 | 123 | 2.0 | 11.0 | 0.00 | 0.00 | 0.00 | 26 | 1013.7 |
| 20260502180117 | 89 | 100 | 3.0 | 11.0 | 0.00 | 0.00 | 0.00 | 26 | 1013.7 |
| 20260502170420 | 85 | 134 | 2.0 | 10.0 | 0.00 | 0.00 | 0.00 | 29 | 1013.9 |
| 20260502170322 | 85 | 117 | 3.0 | 10.0 | 0.00 | 0.00 | 0.00 | 29 | 1013.9 |
| 20260502170250 | 85 | 119 | 4.0 | 10.0 | 0.00 | 0.00 | 0.00 | 29 | 1013.9 |
| 20260502170132 | 85 | 126 | 4.0 | 10.0 | 0.00 | 0.00 | 0.00 | 29 | 1013.9 |
| 20260502164320 | 85 | 114 | 3.0 | 10.0 | 0.00 | 0.00 | 0.00 | 30 | 1014.1 |
| 20260502164229 | 85 | 98 | 4.0 | 10.0 | 0.00 | 0.00 | 0.00 | 29 | 1014.2 |
| 20260502164200 | 85 | 93 | 3.0 | 12.0 | 0.00 | 0.00 | 0.00 | 29 | 1014.2 |
| 20260502164043 | 84 | 80 | 2.0 | 13.0 | 0.00 | 0.00 | 0.00 | 30 | 1014.1 |
| 20260502163924 | 84 | 76 | 3.0 | 13.0 | 0.00 | 0.00 | 0.00 | 30 | 1014.1 |
| 20260502163833 | 84 | 102 | 3.0 | 13.0 | 0.00 | 0.00 | 0.00 | 30 | 1014.1 |
| 20260502163754 | 84 | 99 | 3.0 | 13.0 | 0.00 | 0.00 | 0.00 | 29 | 1014.2 |
| 20260502163642 | 84 | 108 | 3.0 | 13.0 | 0.00 | 0.00 | 0.00 | 29 | 1014.2 |
| 20260502163543 | 84 | 72 | 4.0 | 13.0 | 0.00 | 0.00 | 0.00 | 30 | 1014.2 |
| 20260502163424 | 84 | 91 | 5.0 | 13.0 | 0.00 | 0.00 | 0.00 | 30 | 1014.3 |
| 20260502163337 | 84 | 107 | 6.0 | 13.0 | 0.00 | 0.00 | 0.00 | 29 | 1014.2 |
| 20260502163219 | 84 | 119 | 4.0 | 13.0 | 0.00 | 0.00 | 0.00 | 30 | 1014.2 |
| 20260502163121 | 84 | 89 | 3.0 | 11.0 | 0.00 | 0.00 | 0.00 | 31 | 1014.2 |
| 20260502163023 | 84 | 75 | 3.0 | 11.0 | 0.00 | 0.00 | 0.00 | 30 | 1014.3 |
| 20260502162951 | 84 | 99 | 3.0 | 11.0 | 0.00 | 0.00 | 0.00 | 30 | 1014.2 |
| 20260502162831 | 84 | 98 | 2.0 | 11.0 | 0.00 | 0.00 | 0.00 | 30 | 1014.2 |
| 20260502162722 | 84 | 105 | 3.0 | 11.0 | 0.00 | 0.00 | 0.00 | 30 | 1014.3 |
| 20260502162624 | 84 | 79 | 5.0 | 11.0 | 0.00 | 0.00 | 0.00 | 30 | 1014.2 |
| 20260502162528 | 84 | 95 | 5.0 | 11.0 | 0.00 | 0.00 | 0.00 | 30 | 1014.3 |
| 20260502162431 | 84 | 93 | 2.0 | 11.0 | 0.00 | 0.00 | 0.00 | 30 | 1014.1 |
| 20260502162401 | 84 | 83 | 1.0 | 11.0 | 0.00 | 0.00 | 0.00 | 30 | 1014.2 |
| 20260502162241 | 84 | 113 | 3.0 | 11.0 | 0.00 | 0.00 | 0.00 | 30 | 1014.2 |
| 20260502162122 | 84 | 128 | 5.0 | 11.0 | 0.00 | 0.00 | 0.00 | 30 | 1014.1 |
| 20260502162034 | 84 | 98 | 5.0 | 11.0 | 0.00 | 0.00 | 0.00 | 29 | 1014.2 |
| 20260502161936 | 84 | 110 | 4.0 | 14.0 | 0.00 | 0.00 | 0.00 | 29 | 1014.1 |
| 20260502161823 | 84 | 104 | 5.0 | 14.0 | 0.00 | 0.00 | 0.00 | 30 | 1014.1 |
| 20260502161722 | 84 | 58 | 4.0 | 14.0 | 0.00 | 0.00 | 0.00 | 29 | 1014.2 |
| 20260502161651 | 84 | 68 | 2.0 | 14.0 | 0.00 | 0.00 | 0.00 | 30 | 1014.1 |
| 20260502161539 | 84 | 65 | 1.0 | 14.0 | 0.00 | 0.00 | 0.00 | 30 | 1014.1 |
| 20260502161420 | 84 | 108 | 2.0 | 14.0 | 0.00 | 0.00 | 0.00 | 29 | 1014.2 |
| 20260502161322 | 83 | 74 | 3.0 | 14.0 | 0.00 | 0.00 | 0.00 | 30 | 1014.1 |
| 20260502161228 | 83 | 70 | 4.0 | 14.0 | 0.00 | 0.00 | 0.00 | 30 | 1014.1 |
| 20260502161134 | 83 | 84 | 2.0 | 12.0 | 0.00 | 0.00 | 0.00 | 30 | 1014.1 |
| 20260502161015 | 83 | 72 | 1.0 | 10.0 | 0.00 | 0.00 | 0.00 | 29 | 1014.1 |
| 20260502160916 | 83 | 98 | 2.0 | 14.0 | 0.00 | 0.00 | 0.00 | 30 | 1014.1 |
| 20260502160826 | 83 | 86 | 3.0 | 14.0 | 0.00 | 0.00 | 0.00 | 29 | 1014.1 |
| 20260502160728 | 83 | 103 | 2.0 | 14.0 | 0.00 | 0.00 | 0.00 | 29 | 1014.1 |
| 20260502160657 | 83 | 96 | 1.0 | 14.0 | 0.00 | 0.00 | 0.00 | 30 | 1014.1 |
| 20260502160522 | 83 | 91 | 0.0 | 14.0 | 0.00 | 0.00 | 0.00 | 29 | 1014.0 |
| 20260502160425 | 83 | 91 | 0.0 | 14.0 | 0.00 | 0.00 | 0.00 | 30 | 1014.0 |
| 20260502160327 | 83 | 93 | 4.0 | 14.0 | 0.00 | 0.00 | 0.00 | 29 | 1014.1 |
| 20260502160233 | 83 | 93 | 5.0 | 14.0 | 0.00 | 0.00 | 0.00 | 30 | 1014.1 |
| 20260502160144 | 83 | 91 | 3.0 | 14.0 | 0.00 | 0.00 | 0.00 | 30 | 1014.1 |
| 20260502152331 | 79 | 75 | 0.0 | 1.0 | 0.00 | 0.00 | 0.00 | 25 | 1013.8 |
| 20260502152233 | 79 | 72 | 0.0 | 1.0 | 0.00 | 0.00 | 0.00 | 25 | 1013.8 |
| 20260502152203 | 79 | 58 | 0.0 | 1.0 | 0.00 | 0.00 | 0.00 | 26 | 1013.8 |
| 20260502152023 | 79 | 57 | 0.0 | 1.0 | 0.00 | 0.00 | 0.00 | 26 | 1013.7 |
| 20260502151925 | 79 | 57 | 0.0 | 1.0 | 0.00 | 0.00 | 0.00 | 25 | 1013.8 |
| 20260502151830 | 79 | 57 | 0.0 | 1.0 | 0.00 | 0.00 | 0.00 | 25 | 1013.8 |
| 20260502151739 | 79 | 57 | 0.0 | 1.0 | 0.00 | 0.00 | 0.00 | 26 | 1013.8 |
| 20260502151639 | 79 | 57 | 0.0 | 0.0 | 0.00 | 0.00 | 0.00 | 26 | 1013.7 |
| 20260502151527 | 79 | 57 | 0.0 | 0.0 | 0.00 | 0.00 | 0.00 | 26 | 1013.8 |
| 20260502151429 | 79 | 57 | 0.0 | 0.0 | 0.00 | 0.00 | 0.00 | 26 | 1013.8 |
| 20260502151331 | 79 | 57 | 0.0 | 0.0 | 0.00 | 0.00 | 0.00 | 26 | 1013.8 |
| 20260502151301 | 79 | 57 | 0.0 | 0.0 | 0.00 | 0.00 | 0.00 | 26 | 1013.8 |
| 20260502151024 | 78 | 56 | 0.0 | 0.0 | 0.00 | 0.00 | 0.00 | 26 | 1013.7 |
| 20260502150932 | 78 | 55 | 0.0 | 0.0 | 0.00 | 0.00 | 0.00 | 26 | 1013.8 |
| 20260502150834 | 78 | 54 | 0.0 | 0.0 | 0.00 | 0.00 | 0.00 | 26 | 1013.8 |
| 20260502150716 | 78 | 54 | 0.0 | 0.0 | 0.00 | 0.00 | 0.00 | 26 | 1013.8 |
| 20260502150618 | 78 | 53 | 0.0 | 0.0 | 0.00 | 0.00 | 0.00 | 26 | 1013.7 |
| 20260502150527 | 78 | 53 | 0.0 | 0.0 | 0.00 | 0.00 | 0.00 | 25 | 1013.7 |
| 20260502150433 | 78 | 53 | 0.0 | 0.0 | 0.00 | 0.00 | 0.00 | 25 | 1013.7 |
| 20260502150315 | 78 | 53 | 0.0 | 0.0 | 0.00 | 0.00 | 0.00 | 27 | 1013.7 |
| 20260502150216 | 78 | 53 | 0.0 | 0.0 | 0.00 | 0.00 | 0.00 | 26 | 1013.7 |
| 20260502150145 | 78 | 53 | 0.0 | 1.0 | 0.00 | 0.00 | 0.00 | 27 | 1013.7 |
| 20260502150105 | 78 | 53 | 0.0 | 1.0 | 0.00 | 0.00 | 0.00 | 27 | 1013.7 |
| 20260502140128 | 69 | 46 | 0.0 | 0.0 | 0.00 | 0.00 | 0.00 | 38 | 1013.2 |
| 20260502130622 | 65 | 360 | 0.0 | 0.0 | 0.00 | 0.00 | 0.00 | 39 | 1012.3 |
| 20260502130523 | 64 | 360 | 0.0 | 0.0 | 0.00 | 0.00 | 0.00 | 40 | 1012.3 |
| 20260502130424 | 64 | 360 | 0.0 | 0.0 | 0.00 | 0.00 | 0.00 | 39 | 1012.2 |
| 20260502130334 | 64 | 360 | 0.0 | 0.0 | 0.00 | 0.00 | 0.00 | 39 | 1012.2 |
| 20260502130235 | 64 | 62 | 0.0 | 0.0 | 0.00 | 0.00 | 0.00 | 38 | 1012.2 |
| 20260502130120 | 64 | 58 | 0.0 | 0.0 | 0.00 | 0.00 | 0.00 | 38 | 1012.2 |
| 20260502123725 | 64 | 360 | 0.0 | 0.0 | 0.00 | 0.00 | 0.00 | 39 | 1011.8 |
| 20260502123636 | 64 | 360 | 0.0 | 0.0 | 0.00 | 0.00 | 0.00 | 39 | 1011.7 |
| 20260502123521 | 64 | 360 | 0.0 | 0.0 | 0.00 | 0.00 | 0.00 | 39 | 1011.8 |
| 20260502123423 | 64 | 360 | 0.0 | 0.0 | 0.00 | 0.00 | 0.00 | 39 | 1011.7 |
| 20260502123330 | 64 | 360 | 0.0 | 0.0 | 0.00 | 0.00 | 0.00 | 39 | 1011.7 |
| 20260502123233 | 64 | 360 | 0.0 | 0.0 | 0.00 | 0.00 | 0.00 | 39 | 1011.8 |
| 20260502123115 | 64 | 360 | 0.0 | 0.0 | 0.00 | 0.00 | 0.00 | 39 | 1011.7 |
| 20260502123018 | 64 | 360 | 0.0 | 0.0 | 0.00 | 0.00 | 0.00 | 39 | 1011.7 |
| 20260502122931 | 64 | 360 | 0.0 | 0.0 | 0.00 | 0.00 | 0.00 | 39 | 1011.7 |
| 20260502122833 | 64 | 61 | 0.0 | 0.0 | 0.00 | 0.00 | 0.00 | 38 | 1011.7 |
| 20260502122735 | 64 | 360 | 0.0 | 0.0 | 0.00 | 0.00 | 0.00 | 38 | 1011.7 |
| 20260502122616 | 64 | 360 | 0.0 | 0.0 | 0.00 | 0.00 | 0.00 | 38 | 1011.6 |
| 20260502122544 | 64 | 360 | 0.0 | 0.0 | 0.00 | 0.00 | 0.00 | 38 | 1011.7 |
| 20260502122431 | 64 | 360 | 0.0 | 0.0 | 0.00 | 0.00 | 0.00 | 38 | 1011.7 |
| 20260502122333 | 64 | 360 | 0.0 | 0.0 | 0.00 | 0.00 | 0.00 | 37 | 1011.6 |
| 20260502122219 | 65 | 360 | 0.0 | 0.0 | 0.00 | 0.00 | 0.00 | 38 | 1011.6 |
| 20260502122127 | 65 | 360 | 0.0 | 0.0 | 0.00 | 0.00 | 0.00 | 37 | 1011.6 |
| 20260502122049 | 65 | 360 | 0.0 | 0.0 | 0.00 | 0.00 | 0.00 | 37 | 1011.6 |
| 20260502121938 | 64 | 360 | 0.0 | 0.0 | 0.00 | 0.00 | 0.00 | 37 | 1011.6 |
| 20260502121820 | 64 | 360 | 0.0 | 0.0 | 0.00 | 0.00 | 0.00 | 37 | 1011.6 |
| 20260502121722 | 64 | 360 | 0.0 | 0.0 | 0.00 | 0.00 | 0.00 | 37 | 1011.6 |
| 20260502121649 | 64 | 360 | 0.0 | 0.0 | 0.00 | 0.00 | 0.00 | 37 | 1011.6 |
| 20260502121534 | 64 | 360 | 0.0 | 0.0 | 0.00 | 0.00 | 0.00 | 38 | 1011.5 |
| 20260502121417 | 64 | 360 | 0.0 | 0.0 | 0.00 | 0.00 | 0.00 | 37 | 1011.5 |
| 20260502121319 | 64 | 360 | 0.0 | 0.0 | 0.00 | 0.00 | 0.00 | 37 | 1011.5 |
| 20260502121227 | 64 | 360 | 0.0 | 0.0 | 0.00 | 0.00 | 0.00 | 38 | 1011.5 |
| 20260502121157 | 64 | 360 | 0.0 | 0.0 | 0.00 | 0.00 | 0.00 | 38 | 1011.5 |
| 20260502121017 | 65 | 360 | 0.0 | 0.0 | 0.00 | 0.00 | 0.00 | 38 | 1011.6 |
| 20260502120924 | 65 | 360 | 0.0 | 0.0 | 0.00 | 0.00 | 0.00 | 37 | 1011.5 |
| 20260502120825 | 65 | 360 | 0.0 | 0.0 | 0.00 | 0.00 | 0.00 | 37 | 1011.4 |
| 20260502120734 | 65 | 360 | 0.0 | 0.0 | 0.00 | 0.00 | 0.00 | 37 | 1011.5 |
| 20260502120637 | 65 | 360 | 0.0 | 0.0 | 0.00 | 0.00 | 0.00 | 37 | 1011.5 |
| 20260502120518 | 65 | 360 | 0.0 | 0.0 | 0.00 | 0.00 | 0.00 | 37 | 1011.5 |
| 20260502120426 | 65 | 360 | 0.0 | 0.0 | 0.00 | 0.00 | 0.00 | 38 | 1011.5 |
| 20260502120335 | 65 | 360 | 0.0 | 0.0 | 0.00 | 0.00 | 0.00 | 38 | 1011.4 |
| 20260502120241 | 65 | 360 | 0.0 | 0.0 | 0.00 | 0.00 | 0.00 | 37 | 1011.4 |
| 20260502120121 | 65 | 360 | 0.0 | 0.0 | 0.00 | 0.00 | 0.00 | 37 | 1011.5 |
| 20260502115832 | 65 | 360 | 0.0 | 0.0 | 0.00 | 0.00 | 0.00 | 37 | 1011.4 |
| 20260502115734 | 65 | 360 | 0.0 | 0.0 | 0.00 | 0.00 | 0.00 | 37 | 1011.5 |
| 20260502115616 | 65 | 360 | 0.0 | 0.0 | 0.00 | 0.00 | 0.00 | 37 | 1011.4 |
| 20260502115530 | 65 | 360 | 0.0 | 0.0 | 0.00 | 0.00 | 0.00 | 37 | 1011.4 |
| 20260502115432 | 65 | 360 | 0.0 | 0.0 | 0.00 | 0.00 | 0.00 | 37 | 1011.4 |
| 20260502115333 | 65 | 360 | 0.0 | 0.0 | 0.00 | 0.00 | 0.00 | 37 | 1011.4 |
| 20260502115241 | 65 | 360 | 0.0 | 0.0 | 0.00 | 0.00 | 0.00 | 37 | 1011.4 |
| 20260502115122 | 65 | 360 | 0.0 | 0.0 | 0.00 | 0.00 | 0.00 | 37 | 1011.5 |
| 20260502115024 | 65 | 360 | 0.0 | 0.0 | 0.00 | 0.00 | 0.00 | 36 | 1011.4 |
| 20260502114937 | 65 | 360 | 0.0 | 0.0 | 0.00 | 0.00 | 0.00 | 36 | 1011.5 |
| 20260502114819 | 65 | 360 | 0.0 | 0.0 | 0.00 | 0.00 | 0.00 | 36 | 1011.4 |
| 20260502114721 | 65 | 360 | 0.0 | 0.0 | 0.00 | 0.00 | 0.00 | 37 | 1011.5 |
| 20260502114622 | 65 | 360 | 0.0 | 0.0 | 0.00 | 0.00 | 0.00 | 37 | 1011.4 |
| 20260502114532 | 65 | 360 | 0.0 | 0.0 | 0.00 | 0.00 | 0.00 | 36 | 1011.4 |
| 20260502114434 | 65 | 360 | 0.0 | 0.0 | 0.00 | 0.00 | 0.00 | 36 | 1011.4 |
| 20260502114319 | 65 | 360 | 0.0 | 0.0 | 0.00 | 0.00 | 0.00 | 36 | 1011.4 |
| 20260502114229 | 65 | 360 | 0.0 | 0.0 | 0.00 | 0.00 | 0.00 | 36 | 1011.4 |
| 20260502114131 | 65 | 360 | 0.0 | 0.0 | 0.00 | 0.00 | 0.00 | 36 | 1011.4 |
| 20260502114033 | 65 | 360 | 0.0 | 0.0 | 0.00 | 0.00 | 0.00 | 36 | 1011.3 |
| 20260502113921 | 66 | 360 | 0.0 | 0.0 | 0.00 | 0.00 | 0.00 | 36 | 1011.4 |
| 20260502113822 | 66 | 360 | 0.0 | 0.0 | 0.00 | 0.00 | 0.00 | 35 | 1011.3 |
| 20260502113731 | 66 | 360 | 0.0 | 0.0 | 0.00 | 0.00 | 0.00 | 36 | 1011.3 |
| 20260502113616 | 66 | 360 | 0.0 | 0.0 | 0.00 | 0.00 | 0.00 | 35 | 1011.4 |
| 20260502113517 | 66 | 360 | 0.0 | 0.0 | 0.00 | 0.00 | 0.00 | 36 | 1011.4 |
| 20260502113424 | 66 | 360 | 0.0 | 0.0 | 0.00 | 0.00 | 0.00 | 35 | 1011.3 |
| 20260502113347 | 66 | 360 | 0.0 | 0.0 | 0.00 | 0.00 | 0.00 | 36 | 1011.3 |
| 20260502113233 | 66 | 360 | 0.0 | 0.0 | 0.00 | 0.00 | 0.00 | 36 | 1011.3 |
| 20260502113133 | 66 | 360 | 0.0 | 0.0 | 0.00 | 0.00 | 0.00 | 35 | 1011.4 |
| 20260502113019 | 66 | 360 | 0.0 | 0.0 | 0.00 | 0.00 | 0.00 | 35 | 1011.3 |
| 20260502112921 | 66 | 360 | 0.0 | 0.0 | 0.00 | 0.00 | 0.00 | 36 | 1011.3 |
| 20260502112831 | 66 | 360 | 0.0 | 0.0 | 0.00 | 0.00 | 0.00 | 35 | 1011.3 |
| 20260502112733 | 66 | 360 | 0.0 | 0.0 | 0.00 | 0.00 | 0.00 | 36 | 1011.3 |
| 20260502112642 | 66 | 360 | 0.0 | 0.0 | 0.00 | 0.00 | 0.00 | 35 | 1011.3 |
| 20260502112543 | 66 | 360 | 0.0 | 0.0 | 0.00 | 0.00 | 0.00 | 35 | 1011.3 |
| 20260502112423 | 66 | 360 | 0.0 | 0.0 | 0.00 | 0.00 | 0.00 | 35 | 1011.2 |
| 20260502112335 | 66 | 360 | 0.0 | 0.0 | 0.00 | 0.00 | 0.00 | 35 | 1011.3 |
| 20260502112217 | 66 | 360 | 0.0 | 0.0 | 0.00 | 0.00 | 0.00 | 35 | 1011.2 |
| 20260502112119 | 66 | 360 | 0.0 | 0.0 | 0.00 | 0.00 | 0.00 | 35 | 1011.3 |
| 20260502112048 | 66 | 360 | 0.0 | 0.0 | 0.00 | 0.00 | 0.00 | 36 | 1011.3 |
| 20260502111929 | 66 | 360 | 0.0 | 0.0 | 0.00 | 0.00 | 0.00 | 36 | 1011.2 |
| 20260502111831 | 66 | 360 | 0.0 | 0.0 | 0.00 | 0.00 | 0.00 | 36 | 1011.2 |
| 20260502111716 | 66 | 360 | 0.0 | 0.0 | 0.00 | 0.00 | 0.00 | 36 | 1011.1 |
| 20260502111626 | 66 | 360 | 0.0 | 0.0 | 0.00 | 0.00 | 0.00 | 36 | 1011.1 |
| 20260502111528 | 66 | 360 | 0.0 | 0.0 | 0.00 | 0.00 | 0.00 | 36 | 1011.2 |
| 20260502111431 | 66 | 360 | 0.0 | 0.0 | 0.00 | 0.00 | 0.00 | 36 | 1011.2 |
| 20260502111400 | 66 | 360 | 0.0 | 0.0 | 0.00 | 0.00 | 0.00 | 36 | 1011.2 |
| 20260502111118 | 66 | 360 | 0.0 | 0.0 | 0.00 | 0.00 | 0.00 | 36 | 1011.2 |
| 20260502111031 | 66 | 360 | 0.0 | 0.0 | 0.00 | 0.00 | 0.00 | 36 | 1011.1 |
| 20260502110933 | 67 | 360 | 0.0 | 0.0 | 0.00 | 0.00 | 0.00 | 36 | 1011.1 |
| 20260502110903 | 67 | 360 | 0.0 | 0.0 | 0.00 | 0.00 | 0.00 | 35 | 1011.1 |
| 20260502110722 | 67 | 360 | 0.0 | 0.0 | 0.00 | 0.00 | 0.00 | 35 | 1011.1 |
| 20260502110625 | 67 | 360 | 0.0 | 0.0 | 0.00 | 0.00 | 0.00 | 35 | 1011.2 |
| 20260502110528 | 67 | 360 | 0.0 | 0.0 | 0.00 | 0.00 | 0.00 | 35 | 1011.1 |
| 20260502110437 | 67 | 360 | 0.0 | 0.0 | 0.00 | 0.00 | 0.00 | 35 | 1011.1 |
| 20260502110323 | 67 | 360 | 0.0 | 0.0 | 0.00 | 0.00 | 0.00 | 35 | 1011.1 |
| 20260502110225 | 67 | 360 | 0.0 | 0.0 | 0.00 | 0.00 | 0.00 | 35 | 1011.1 |
| 20260502110127 | 67 | 360 | 0.0 | 0.0 | 0.00 | 0.00 | 0.00 | 35 | 1011.1 |
| 20260502110026 | 67 | 360 | 0.0 | 0.0 | 0.00 | 0.00 | 0.00 | 35 | 1011.1 |
| 20260502105918 | 67 | 360 | 0.0 | 0.0 | 0.00 | 0.00 | 0.00 | 35 | 1011.1 |
| 20260502105847 | 67 | 360 | 0.0 | 0.0 | 0.00 | 0.00 | 0.00 | 35 | 1011.2 |
| 20260502105731 | 67 | 360 | 0.0 | 0.0 | 0.00 | 0.00 | 0.00 | 35 | 1011.2 |
| 20260502105641 | 67 | 360 | 0.0 | 0.0 | 0.00 | 0.00 | 0.00 | 36 | 1011.2 |
| 20260502105543 | 67 | 360 | 0.0 | 0.0 | 0.00 | 0.00 | 0.00 | 36 | 1011.1 |
| 20260502105425 | 66 | 360 | 0.0 | 0.0 | 0.00 | 0.00 | 0.00 | 36 | 1011.1 |
| 20260502105334 | 67 | 360 | 0.0 | 0.0 | 0.00 | 0.00 | 0.00 | 36 | 1011.2 |
| 20260502105236 | 67 | 360 | 0.0 | 0.0 | 0.00 | 0.00 | 0.00 | 36 | 1011.1 |
| 20260502105121 | 67 | 360 | 0.0 | 0.0 | 0.00 | 0.00 | 0.00 | 36 | 1011.1 |
| 20260502105023 | 67 | 360 | 0.0 | 0.0 | 0.00 | 0.00 | 0.00 | 36 | 1011.2 |
| 20260502104932 | 67 | 360 | 0.0 | 0.0 | 0.00 | 0.00 | 0.00 | 36 | 1011.1 |
| 20260502104833 | 67 | 360 | 0.0 | 0.0 | 0.00 | 0.00 | 0.00 | 36 | 1011.1 |
| 20260502104734 | 67 | 360 | 0.0 | 0.0 | 0.00 | 0.00 | 0.00 | 36 | 1011.1 |
| 20260502104616 | 67 | 360 | 0.0 | 0.0 | 0.00 | 0.00 | 0.00 | 36 | 1011.1 |
| 20260502104530 | 67 | 360 | 0.0 | 0.0 | 0.00 | 0.00 | 0.00 | 36 | 1011.3 |
| 20260502104432 | 67 | 360 | 0.0 | 0.0 | 0.00 | 0.00 | 0.00 | 36 | 1011.3 |
| 20260502104342 | 67 | 360 | 0.0 | 0.0 | 0.00 | 0.00 | 0.00 | 36 | 1011.3 |
| 20260502104224 | 67 | 360 | 0.0 | 0.0 | 0.00 | 0.00 | 0.00 | 36 | 1011.3 |
| 20260502104126 | 67 | 360 | 0.0 | 0.0 | 0.00 | 0.00 | 0.00 | 36 | 1011.2 |
| 20260502104028 | 67 | 360 | 0.0 | 0.0 | 0.00 | 0.00 | 0.00 | 36 | 1011.2 |
| 20260502103942 | 67 | 360 | 0.0 | 0.0 | 0.00 | 0.00 | 0.00 | 36 | 1011.2 |
| 20260502103823 | 67 | 360 | 0.0 | 0.0 | 0.00 | 0.00 | 0.00 | 36 | 1011.3 |
| 20260502103745 | 67 | 360 | 0.0 | 0.0 | 0.00 | 0.00 | 0.00 | 36 | 1011.3 |
| 20260502103653 | 66 | 360 | 0.0 | 0.0 | 0.00 | 0.00 | 0.00 | 36 | 1011.3 |
| 20260502103602 | 66 | 360 | 0.0 | 0.0 | 0.00 | 0.00 | 0.00 | 36 | 1011.3 |
| 20260502103423 | 67 | 360 | 0.0 | 0.0 | 0.00 | 0.00 | 0.00 | 35 | 1011.4 |
| 20260502103325 | 67 | 360 | 0.0 | 0.0 | 0.00 | 0.00 | 0.00 | 35 | 1011.4 |
| 20260502103230 | 67 | 360 | 0.0 | 0.0 | 0.00 | 0.00 | 0.00 | 35 | 1011.3 |
| 20260502103142 | 67 | 360 | 0.0 | 0.0 | 0.00 | 0.00 | 0.00 | 35 | 1011.3 |
| 20260502103022 | 67 | 360 | 0.0 | 0.0 | 0.00 | 0.00 | 0.00 | 35 | 1011.3 |
| 20260502102924 | 67 | 360 | 0.0 | 0.0 | 0.00 | 0.00 | 0.00 | 35 | 1011.3 |
| 20260502102853 | 67 | 360 | 0.0 | 0.0 | 0.00 | 0.00 | 0.00 | 35 | 1011.3 |
| 20260502102802 | 67 | 360 | 0.0 | 0.0 | 0.00 | 0.00 | 0.00 | 35 | 1011.3 |
| 20260502102621 | 67 | 360 | 0.0 | 0.0 | 0.00 | 0.00 | 0.00 | 35 | 1011.3 |
| 20260502102552 | 67 | 360 | 0.0 | 0.0 | 0.00 | 0.00 | 0.00 | 35 | 1011.3 |
| 20260502102455 | 67 | 360 | 0.0 | 0.0 | 0.00 | 0.00 | 0.00 | 35 | 1011.2 |
| 20260502102321 | 67 | 360 | 0.0 | 0.0 | 0.00 | 0.00 | 0.00 | 35 | 1011.2 |
| 20260502102221 | 67 | 360 | 0.0 | 0.0 | 0.00 | 0.00 | 0.00 | 35 | 1011.3 |
| 20260502102130 | 67 | 360 | 0.0 | 0.0 | 0.00 | 0.00 | 0.00 | 35 | 1011.3 |
| 20260502102031 | 67 | 360 | 0.0 | 0.0 | 0.00 | 0.00 | 0.00 | 35 | 1011.2 |
| 20260502101940 | 67 | 360 | 0.0 | 0.0 | 0.00 | 0.00 | 0.00 | 35 | 1011.2 |
| 20260502101822 | 67 | 360 | 0.0 | 0.0 | 0.00 | 0.00 | 0.00 | 35 | 1011.3 |
| 20260502101728 | 67 | 360 | 0.0 | 0.0 | 0.00 | 0.00 | 0.00 | 35 | 1011.2 |
| 20260502101656 | 67 | 360 | 0.0 | 0.0 | 0.00 | 0.00 | 0.00 | 35 | 1011.2 |
| 20260502101516 | 67 | 360 | 0.0 | 0.0 | 0.00 | 0.00 | 0.00 | 35 | 1011.2 |
| 20260502101417 | 67 | 60 | 0.0 | 0.0 | 0.00 | 0.00 | 0.00 | 35 | 1011.1 |
| 20260502101329 | 67 | 59 | 0.0 | 0.0 | 0.00 | 0.00 | 0.00 | 35 | 1011.2 |
| 20260502101229 | 67 | 58 | 0.0 | 0.0 | 0.00 | 0.00 | 0.00 | 35 | 1011.2 |
| 20260502101115 | 67 | 58 | 0.0 | 0.0 | 0.00 | 0.00 | 0.00 | 35 | 1011.1 |
| 20260502101044 | 67 | 58 | 0.0 | 0.0 | 0.00 | 0.00 | 0.00 | 35 | 1011.1 |
| 20260502100925 | 67 | 58 | 0.0 | 0.0 | 0.00 | 0.00 | 0.00 | 34 | 1011.1 |
| 20260502100833 | 67 | 58 | 0.0 | 0.0 | 0.00 | 0.00 | 0.00 | 34 | 1011.1 |
| 20260502100734 | 67 | 58 | 0.0 | 0.0 | 0.00 | 0.00 | 0.00 | 34 | 1011.2 |
| 20260502100637 | 67 | 57 | 0.0 | 0.0 | 0.00 | 0.00 | 0.00 | 34 | 1011.1 |
| 20260502100517 | 67 | 57 | 0.0 | 0.0 | 0.00 | 0.00 | 0.00 | 34 | 1011.1 |
| 20260502100424 | 67 | 57 | 0.0 | 0.0 | 0.00 | 0.00 | 0.00 | 33 | 1011.0 |
| 20260502100329 | 67 | 57 | 0.0 | 0.0 | 0.00 | 0.00 | 0.00 | 33 | 1011.1 |
| 20260502100240 | 67 | 57 | 0.0 | 0.0 | 0.00 | 0.00 | 0.00 | 33 | 1011.1 |
| 20260502100141 | 68 | 57 | 0.0 | 0.0 | 0.00 | 0.00 | 0.00 | 33 | 1011.1 |
| 20260502091424 | 70 | 56 | 0.0 | 0.0 | 0.00 | 0.00 | 0.00 | 29 | 1010.7 |
| 20260502091326 | 70 | 56 | 0.0 | 0.0 | 0.00 | 0.00 | 0.00 | 29 | 1010.7 |
| 20260502091235 | 70 | 56 | 0.0 | 0.0 | 0.00 | 0.00 | 0.00 | 28 | 1010.7 |
| 20260502091121 | 70 | 56 | 0.0 | 0.0 | 0.00 | 0.00 | 0.00 | 28 | 1010.6 |
| 20260502091022 | 70 | 56 | 0.0 | 0.0 | 0.00 | 0.00 | 0.00 | 28 | 1010.7 |
| 20260502090952 | 70 | 56 | 0.0 | 0.0 | 0.00 | 0.00 | 0.00 | 28 | 1010.7 |
| 20260502090831 | 70 | 56 | 0.0 | 0.0 | 0.00 | 0.00 | 0.00 | 28 | 1010.6 |
| 20260502090740 | 70 | 56 | 0.0 | 0.0 | 0.00 | 0.00 | 0.00 | 28 | 1010.6 |
| 20260502090621 | 70 | 56 | 0.0 | 0.0 | 0.00 | 0.00 | 0.00 | 28 | 1010.6 |
| 20260502090543 | 70 | 56 | 0.0 | 0.0 | 0.00 | 0.00 | 0.00 | 28 | 1010.7 |
| 20260502090455 | 70 | 56 | 0.0 | 0.0 | 0.00 | 0.00 | 0.00 | 28 | 1010.6 |
| 20260502090343 | 70 | 56 | 0.0 | 0.0 | 0.00 | 0.00 | 0.00 | 28 | 1010.6 |
| 20260502090224 | 70 | 56 | 0.0 | 0.0 | 0.00 | 0.00 | 0.00 | 28 | 1010.6 |
| 20260502090152 | 70 | 56 | 0.0 | 0.0 | 0.00 | 0.00 | 0.00 | 28 | 1010.6 |
| 20260502071533 | 75 | 256 | 0.0 | 0.0 | 0.00 | 0.00 | 0.00 | 24 | 1009.7 |
| 20260502071421 | 74 | 256 | 0.0 | 0.0 | 0.00 | 0.00 | 0.00 | 24 | 1009.8 |
| 20260502071323 | 74 | 256 | 0.0 | 0.0 | 0.00 | 0.00 | 0.00 | 23 | 1009.7 |
| 20260502071226 | 74 | 256 | 0.0 | 0.0 | 0.00 | 0.00 | 0.00 | 24 | 1009.6 |
| 20260502071133 | 74 | 256 | 0.0 | 0.0 | 0.00 | 0.00 | 0.00 | 24 | 1009.7 |
| 20260502071018 | 74 | 256 | 0.0 | 0.0 | 0.00 | 0.00 | 0.00 | 24 | 1009.6 |
| 20260502070920 | 74 | 256 | 0.0 | 0.0 | 0.00 | 0.00 | 0.00 | 24 | 1009.6 |
| 20260502070828 | 74 | 256 | 0.0 | 0.0 | 0.00 | 0.00 | 0.00 | 24 | 1009.6 |
| 20260502070731 | 74 | 256 | 0.0 | 0.0 | 0.00 | 0.00 | 0.00 | 24 | 1009.6 |
| 20260502070634 | 74 | 256 | 0.0 | 0.0 | 0.00 | 0.00 | 0.00 | 24 | 1009.6 |
| 20260502070517 | 74 | 256 | 0.0 | 0.0 | 0.00 | 0.00 | 0.00 | 25 | 1009.6 |
| 20260502070425 | 74 | 256 | 0.0 | 0.0 | 0.00 | 0.00 | 0.00 | 24 | 1009.6 |
| 20260502070331 | 74 | 256 | 0.0 | 0.0 | 0.00 | 0.00 | 0.00 | 25 | 1009.6 |
| 20260502070242 | 74 | 256 | 0.0 | 0.0 | 0.00 | 0.00 | 0.00 | 25 | 1009.6 |
| 20260502070116 | 74 | 256 | 0.0 | 0.0 | 0.00 | 0.00 | 0.00 | 24 | 1009.6 |
| 20260502070035 | 74 | 256 | 0.0 | 0.0 | 0.00 | 0.00 | 0.00 | 24 | 1009.6 |
| 20260502065952 | 74 | 256 | 0.0 | 0.0 | 0.00 | 0.00 | 0.00 | 24 | 1009.6 |
| 20260502065834 | 74 | 256 | 0.0 | 0.0 | 0.00 | 0.00 | 0.00 | 24 | 1009.6 |
| 20260502065719 | 74 | 256 | 0.0 | 0.0 | 0.00 | 0.00 | 0.00 | 24 | 1009.6 |
| 20260502065627 | 74 | 256 | 0.0 | 0.0 | 0.00 | 0.00 | 0.00 | 24 | 1009.6 |
| 20260502065536 | 74 | 256 | 0.0 | 0.0 | 0.00 | 0.00 | 0.00 | 24 | 1009.6 |
| 20260502065418 | 74 | 256 | 0.0 | 0.0 | 0.00 | 0.00 | 0.00 | 24 | 1009.6 |
| 20260502065320 | 74 | 256 | 0.0 | 0.0 | 0.00 | 0.00 | 0.00 | 25 | 1009.8 |
| 20260502065220 | 74 | 256 | 0.0 | 0.0 | 0.00 | 0.00 | 0.00 | 24 | 1009.6 |
| 20260502065130 | 74 | 256 | 0.0 | 0.0 | 0.00 | 0.00 | 0.00 | 24 | 1009.7 |
| 20260502065034 | 74 | 256 | 0.0 | 0.0 | 0.00 | 0.00 | 0.00 | 24 | 1009.7 |
| 20260502064915 | 75 | 256 | 0.0 | 0.0 | 0.00 | 0.00 | 0.00 | 25 | 1009.7 |
| 20260502064844 | 75 | 256 | 0.0 | 0.0 | 0.00 | 0.00 | 0.00 | 24 | 1009.8 |
| 20260502064726 | 75 | 256 | 0.0 | 0.0 | 0.00 | 0.00 | 0.00 | 24 | 1009.9 |
| 20260502064635 | 75 | 256 | 0.0 | 0.0 | 0.00 | 0.00 | 0.00 | 24 | 1009.9 |
| 20260502064516 | 75 | 256 | 0.0 | 0.0 | 0.00 | 0.00 | 0.00 | 24 | 1010.0 |
| 20260502064423 | 75 | 256 | 0.0 | 0.0 | 0.00 | 0.00 | 0.00 | 24 | 1009.9 |
| 20260502064324 | 75 | 256 | 0.0 | 0.0 | 0.00 | 0.00 | 0.00 | 24 | 1009.8 |
| 20260502064233 | 75 | 256 | 0.0 | 0.0 | 0.00 | 0.00 | 0.00 | 24 | 1009.8 |
| 20260502064135 | 75 | 256 | 0.0 | 0.0 | 0.00 | 0.00 | 0.00 | 24 | 1009.9 |
| 20260502064044 | 75 | 256 | 0.0 | 0.0 | 0.00 | 0.00 | 0.00 | 24 | 1009.9 |
| 20260502063923 | 75 | 256 | 0.0 | 0.0 | 0.00 | 0.00 | 0.00 | 24 | 1010.0 |
| 20260502063832 | 75 | 256 | 0.0 | 0.0 | 0.00 | 0.00 | 0.00 | 24 | 1009.9 |
| 20260502063719 | 75 | 256 | 0.0 | 0.0 | 0.00 | 0.00 | 0.00 | 24 | 1009.9 |
| 20260502063620 | 75 | 256 | 0.0 | 0.0 | 0.00 | 0.00 | 0.00 | 24 | 1009.8 |
| 20260502063549 | 75 | 256 | 0.0 | 0.0 | 0.00 | 0.00 | 0.00 | 24 | 1009.8 |
| 20260502063429 | 75 | 256 | 0.0 | 0.0 | 0.00 | 0.00 | 0.00 | 24 | 1009.8 |
| 20260502063338 | 75 | 256 | 0.0 | 0.0 | 0.00 | 0.00 | 0.00 | 24 | 1009.8 |
| 20260502063219 | 76 | 256 | 0.0 | 0.0 | 0.00 | 0.00 | 0.00 | 24 | 1009.8 |
| 20260502063121 | 76 | 256 | 0.0 | 0.0 | 0.00 | 0.00 | 0.00 | 24 | 1009.9 |
| 20260502063033 | 76 | 256 | 0.0 | 0.0 | 0.00 | 0.00 | 0.00 | 24 | 1009.8 |
| 20260502062954 | 76 | 256 | 0.0 | 0.0 | 0.00 | 0.00 | 0.00 | 23 | 1009.8 |
| 20260502062816 | 76 | 256 | 0.0 | 0.0 | 0.00 | 0.00 | 0.00 | 24 | 1009.8 |
| 20260502062725 | 76 | 256 | 0.0 | 0.0 | 0.00 | 0.00 | 0.00 | 24 | 1009.8 |
| 20260502062627 | 76 | 256 | 0.0 | 0.0 | 0.00 | 0.00 | 0.00 | 24 | 1009.8 |
| 20260502062527 | 76 | 256 | 0.0 | 0.0 | 0.00 | 0.00 | 0.00 | 24 | 1009.8 |
| 20260502062421 | 76 | 256 | 0.0 | 0.0 | 0.00 | 0.00 | 0.00 | 24 | 1009.8 |
| 20260502062323 | 75 | 256 | 0.0 | 0.0 | 0.00 | 0.00 | 0.00 | 24 | 1009.8 |
| 20260502062226 | 75 | 256 | 0.0 | 0.0 | 0.00 | 0.00 | 0.00 | 24 | 1009.7 |
| 20260502062135 | 75 | 256 | 0.0 | 0.0 | 0.00 | 0.00 | 0.00 | 25 | 1009.8 |
| 20260502062057 | 75 | 256 | 0.0 | 0.0 | 0.00 | 0.00 | 0.00 | 25 | 1009.8 |
| 20260502061944 | 75 | 256 | 0.0 | 0.0 | 0.00 | 0.00 | 0.00 | 25 | 1009.8 |
| 20260502061825 | 75 | 256 | 0.0 | 0.0 | 0.00 | 0.00 | 0.00 | 25 | 1009.8 |
| 20260502061731 | 75 | 256 | 0.0 | 0.0 | 0.00 | 0.00 | 0.00 | 26 | 1009.7 |
| 20260502061521 | 74 | 256 | 0.0 | 0.0 | 0.00 | 0.00 | 0.00 | 26 | 1009.7 |
| 20260502061423 | 74 | 256 | 0.0 | 0.0 | 0.00 | 0.00 | 0.00 | 26 | 1009.8 |
| 20260502061232 | 74 | 256 | 0.0 | 0.0 | 0.00 | 0.00 | 0.00 | 26 | 1009.8 |
| 20260502061118 | 74 | 256 | 0.0 | 0.0 | 0.00 | 0.00 | 0.00 | 26 | 1009.7 |
| 20260502061020 | 74 | 256 | 0.0 | 0.0 | 0.00 | 0.00 | 0.00 | 27 | 1009.8 |
| 20260502060922 | 74 | 256 | 0.0 | 0.0 | 0.00 | 0.00 | 0.00 | 27 | 1009.8 |
| 20260502060852 | 75 | 256 | 0.0 | 0.0 | 0.00 | 0.00 | 0.00 | 27 | 1009.8 |
| 20260502060739 | 75 | 256 | 0.0 | 0.0 | 0.00 | 0.00 | 0.00 | 26 | 1009.8 |
| 20260502060620 | 75 | 256 | 0.0 | 0.0 | 0.00 | 0.00 | 0.00 | 27 | 1009.8 |
| 20260502060522 | 74 | 256 | 0.0 | 0.0 | 0.00 | 0.00 | 0.00 | 26 | 1009.7 |
| 20260502060436 | 74 | 256 | 0.0 | 0.0 | 0.00 | 0.00 | 0.00 | 26 | 1009.6 |
| 20260502060319 | 74 | 256 | 0.0 | 0.0 | 0.00 | 0.00 | 0.00 | 27 | 1009.6 |
| 20260502060221 | 74 | 256 | 0.0 | 0.0 | 0.00 | 0.00 | 0.00 | 27 | 1009.6 |
| 20260502060123 | 74 | 256 | 0.0 | 0.0 | 0.00 | 0.00 | 0.00 | 27 | 1009.7 |
| 20260502060044 | 74 | 256 | 0.0 | 0.0 | 0.00 | 0.00 | 0.00 | 28 | 1009.7 |
| 20260502055917 | 74 | 256 | 0.0 | 0.0 | 0.00 | 0.00 | 0.00 | 27 | 1009.6 |
| 20260502055819 | 74 | 256 | 0.0 | 0.0 | 0.00 | 0.00 | 0.00 | 27 | 1009.6 |
| 20260502055728 | 74 | 256 | 0.0 | 0.0 | 0.00 | 0.00 | 0.00 | 27 | 1009.6 |
| 20260502055631 | 74 | 256 | 0.0 | 0.0 | 0.00 | 0.00 | 0.00 | 27 | 1009.6 |
| 20260502055600 | 74 | 256 | 0.0 | 0.0 | 0.00 | 0.00 | 0.00 | 27 | 1009.6 |
| 20260502055421 | 74 | 256 | 0.0 | 0.0 | 0.00 | 0.00 | 0.00 | 27 | 1009.6 |
| 20260502055323 | 74 | 256 | 0.0 | 0.0 | 0.00 | 0.00 | 0.00 | 28 | 1009.6 |
| 20260502055228 | 74 | 256 | 0.0 | 0.0 | 0.00 | 0.00 | 0.00 | 27 | 1009.5 |
| 20260502055137 | 74 | 256 | 0.0 | 0.0 | 0.00 | 0.00 | 0.00 | 27 | 1009.5 |
| 20260502055018 | 74 | 256 | 0.0 | 0.0 | 0.00 | 0.00 | 0.00 | 27 | 1009.5 |
| 20260502054921 | 74 | 256 | 0.0 | 0.0 | 0.00 | 0.00 | 0.00 | 28 | 1009.5 |
| 20260502054823 | 74 | 256 | 0.0 | 0.0 | 0.00 | 0.00 | 0.00 | 28 | 1009.5 |
| 20260502054733 | 74 | 256 | 0.0 | 0.0 | 0.00 | 0.00 | 0.00 | 28 | 1009.5 |
| 20260502054639 | 74 | 256 | 0.0 | 0.0 | 0.00 | 0.00 | 0.00 | 28 | 1009.5 |
| 20260502054519 | 74 | 256 | 0.0 | 0.0 | 0.00 | 0.00 | 0.00 | 28 | 1009.6 |
| 20260502054429 | 74 | 256 | 0.0 | 0.0 | 0.00 | 0.00 | 0.00 | 28 | 1009.5 |
| 20260502054331 | 74 | 256 | 0.0 | 0.0 | 0.00 | 0.00 | 0.00 | 28 | 1009.5 |
| 20260502054234 | 74 | 256 | 0.0 | 0.0 | 0.00 | 0.00 | 0.00 | 27 | 1009.5 |
| 20260502054143 | 74 | 256 | 0.0 | 0.0 | 0.00 | 0.00 | 0.00 | 28 | 1009.5 |
| 20260502054052 | 74 | 256 | 0.0 | 0.0 | 0.00 | 0.00 | 0.00 | 27 | 1009.5 |
| 20260502053917 | 74 | 256 | 0.0 | 0.0 | 0.00 | 0.00 | 0.00 | 27 | 1009.5 |
| 20260502053819 | 74 | 256 | 0.0 | 0.0 | 0.00 | 0.00 | 0.00 | 27 | 1009.5 |
| 20260502053730 | 74 | 256 | 0.0 | 0.0 | 0.00 | 0.00 | 0.00 | 28 | 1009.4 |
| 20260502053632 | 74 | 256 | 0.0 | 0.0 | 0.00 | 0.00 | 0.00 | 27 | 1009.4 |
| 20260502053535 | 74 | 256 | 0.0 | 0.0 | 0.00 | 0.00 | 0.00 | 27 | 1009.5 |
| 20260502053417 | 74 | 256 | 0.0 | 0.0 | 0.00 | 0.00 | 0.00 | 28 | 1009.4 |
| 20260502053329 | 74 | 256 | 0.0 | 0.0 | 0.00 | 0.00 | 0.00 | 27 | 1009.4 |
| 20260502053232 | 74 | 256 | 0.0 | 0.0 | 0.00 | 0.00 | 0.00 | 28 | 1009.4 |
| 20260502053142 | 74 | 256 | 0.0 | 0.0 | 0.00 | 0.00 | 0.00 | 28 | 1009.4 |
| 20260502053024 | 74 | 256 | 0.0 | 0.0 | 0.00 | 0.00 | 0.00 | 28 | 1009.4 |
| 20260502052927 | 74 | 256 | 0.0 | 0.0 | 0.00 | 0.00 | 0.00 | 27 | 1009.4 |
| 20260502052837 | 74 | 256 | 0.0 | 0.0 | 0.00 | 0.00 | 0.00 | 27 | 1009.5 |
| 20260502052723 | 74 | 256 | 0.0 | 0.0 | 0.00 | 0.00 | 0.00 | 27 | 1009.4 |
| 20260502052626 | 74 | 256 | 0.0 | 0.0 | 0.00 | 0.00 | 0.00 | 27 | 1009.5 |
| 20260502052516 | 75 | 256 | 0.0 | 0.0 | 0.00 | 0.00 | 0.00 | 27 | 1009.5 |
| 20260502052437 | 75 | 256 | 0.0 | 0.0 | 0.00 | 0.00 | 0.00 | 27 | 1009.5 |
| 20260502052326 | 75 | 256 | 0.0 | 0.0 | 0.00 | 0.00 | 0.00 | 27 | 1009.4 |
| 20260502052228 | 75 | 256 | 0.0 | 0.0 | 0.00 | 0.00 | 0.00 | 27 | 1009.6 |
| 20260502052131 | 75 | 256 | 0.0 | 0.0 | 0.00 | 0.00 | 0.00 | 26 | 1009.5 |
| 20260502052018 | 75 | 256 | 0.0 | 0.0 | 0.00 | 0.00 | 0.00 | 27 | 1009.5 |
| 20260502051928 | 75 | 256 | 0.0 | 0.0 | 0.00 | 0.00 | 0.00 | 26 | 1009.5 |
| 20260502051830 | 75 | 256 | 0.0 | 0.0 | 0.00 | 0.00 | 0.00 | 26 | 1009.5 |
| 20260502051732 | 75 | 256 | 0.0 | 0.0 | 0.00 | 0.00 | 0.00 | 26 | 1009.5 |
| 20260502051622 | 75 | 256 | 0.0 | 0.0 | 0.00 | 0.00 | 0.00 | 26 | 1009.4 |
| 20260502051523 | 75 | 256 | 0.0 | 0.0 | 0.00 | 0.00 | 0.00 | 26 | 1009.5 |
| 20260502051434 | 75 | 256 | 0.0 | 0.0 | 0.00 | 0.00 | 0.00 | 26 | 1009.5 |
| 20260502051317 | 76 | 256 | 0.0 | 0.0 | 0.00 | 0.00 | 0.00 | 26 | 1009.4 |
| 20260502051226 | 76 | 256 | 0.0 | 0.0 | 0.00 | 0.00 | 0.00 | 27 | 1009.4 |
| 20260502051148 | 76 | 255 | 0.0 | 0.0 | 0.00 | 0.00 | 0.00 | 26 | 1009.4 |
| 20260502051036 | 76 | 255 | 0.0 | 0.0 | 0.00 | 0.00 | 0.00 | 26 | 1009.4 |
| 20260502050919 | 76 | 255 | 0.0 | 0.0 | 0.00 | 0.00 | 0.00 | 27 | 1009.4 |
| 20260502050820 | 76 | 255 | 0.0 | 0.0 | 0.00 | 0.00 | 0.00 | 26 | 1009.2 |
| 20260502050734 | 76 | 255 | 0.0 | 0.0 | 0.00 | 0.00 | 0.00 | 26 | 1009.3 |
| 20260502050702 | 76 | 255 | 0.0 | 0.0 | 0.00 | 0.00 | 0.00 | 26 | 1009.3 |
| 20260502050523 | 76 | 255 | 0.0 | 0.0 | 0.00 | 0.00 | 0.00 | 25 | 1009.2 |
| 20260502050425 | 76 | 256 | 0.0 | 0.0 | 0.00 | 0.00 | 0.00 | 25 | 1009.2 |
| 20260502050335 | 77 | 256 | 0.0 | 0.0 | 0.00 | 0.00 | 0.00 | 25 | 1009.2 |
| 20260502050217 | 77 | 256 | 0.0 | 0.0 | 0.00 | 0.00 | 0.00 | 25 | 1009.2 |
| 20260502050119 | 77 | 256 | 0.0 | 0.0 | 0.00 | 0.00 | 0.00 | 25 | 1009.1 |
| 20260502050042 | 77 | 256 | 0.0 | 0.0 | 0.00 | 0.00 | 0.00 | 25 | 1009.1 |
| 20260502045955 | 76 | 256 | 0.0 | 0.0 | 0.00 | 0.00 | 0.00 | 25 | 1009.1 |
| 20260502045835 | 76 | 256 | 0.0 | 0.0 | 0.00 | 0.00 | 0.00 | 25 | 1009.0 |
| 20260502045717 | 76 | 256 | 0.0 | 0.0 | 0.00 | 0.00 | 0.00 | 25 | 1009.0 |
| 20260502045621 | 76 | 256 | 0.0 | 0.0 | 0.00 | 0.00 | 0.00 | 25 | 1009.0 |
| 20260502045529 | 76 | 256 | 0.0 | 0.0 | 0.00 | 0.00 | 0.00 | 25 | 1009.0 |
| 20260502045431 | 76 | 256 | 0.0 | 0.0 | 0.00 | 0.00 | 0.00 | 25 | 1009.0 |
| 20260502045318 | 77 | 256 | 0.0 | 0.0 | 0.00 | 0.00 | 0.00 | 25 | 1009.0 |
| 20260502045227 | 77 | 256 | 0.0 | 0.0 | 0.00 | 0.00 | 0.00 | 25 | 1008.9 |
| 20260502045130 | 77 | 256 | 0.0 | 0.0 | 0.00 | 0.00 | 0.00 | 26 | 1008.9 |
| 20260502045031 | 77 | 256 | 0.0 | 0.0 | 0.00 | 0.00 | 0.00 | 25 | 1009.0 |
| 20260502044939 | 77 | 256 | 0.0 | 0.0 | 0.00 | 0.00 | 0.00 | 25 | 1009.0 |
| 20260502044826 | 77 | 256 | 0.0 | 0.0 | 0.00 | 0.00 | 0.00 | 25 | 1009.0 |
| 20260502044748 | 77 | 256 | 0.0 | 0.0 | 0.00 | 0.00 | 0.00 | 25 | 1009.0 |
| 20260502044636 | 77 | 256 | 0.0 | 0.0 | 0.00 | 0.00 | 0.00 | 25 | 1009.0 |
| 20260502044519 | 77 | 256 | 0.0 | 0.0 | 0.00 | 0.00 | 0.00 | 24 | 1008.9 |
| 20260502044449 | 77 | 256 | 0.0 | 0.0 | 0.00 | 0.00 | 0.00 | 25 | 1008.9 |
| 20260502044331 | 77 | 256 | 0.0 | 0.0 | 0.00 | 0.00 | 0.00 | 25 | 1009.0 |
| 20260502044234 | 77 | 256 | 0.0 | 0.0 | 0.00 | 0.00 | 0.00 | 25 | 1009.0 |
| 20260502044121 | 78 | 256 | 0.0 | 0.0 | 0.00 | 0.00 | 0.00 | 24 | 1008.9 |
| 20260502044030 | 78 | 256 | 0.0 | 0.0 | 0.00 | 0.00 | 0.00 | 24 | 1008.9 |
| 20260502043933 | 78 | 256 | 0.0 | 0.0 | 0.00 | 0.00 | 0.00 | 24 | 1008.9 |
| 20260502043835 | 78 | 256 | 0.0 | 0.0 | 0.00 | 0.00 | 0.00 | 24 | 1008.9 |
| 20260502043718 | 78 | 256 | 0.0 | 0.0 | 0.00 | 0.00 | 0.00 | 24 | 1009.0 |
| 20260502043648 | 78 | 256 | 0.0 | 0.0 | 0.00 | 0.00 | 0.00 | 24 | 1008.8 |
| 20260502043518 | 78 | 256 | 0.0 | 0.0 | 0.00 | 0.00 | 0.00 | 23 | 1008.9 |
| 20260502043421 | 78 | 256 | 0.0 | 0.0 | 0.00 | 0.00 | 0.00 | 23 | 1008.9 |
| 20260502043324 | 78 | 256 | 0.0 | 0.0 | 0.00 | 0.00 | 0.00 | 23 | 1008.9 |
| 20260502043233 | 78 | 256 | 0.0 | 0.0 | 0.00 | 0.00 | 0.00 | 23 | 1008.9 |
| 20260502043116 | 78 | 256 | 0.0 | 0.0 | 0.00 | 0.00 | 0.00 | 24 | 1008.9 |
| 20260502043018 | 78 | 256 | 0.0 | 0.0 | 0.00 | 0.00 | 0.00 | 24 | 1008.9 |
| 20260502042924 | 78 | 256 | 0.0 | 0.0 | 0.00 | 0.00 | 0.00 | 24 | 1008.9 |
| 20260502042853 | 78 | 256 | 0.0 | 0.0 | 0.00 | 0.00 | 0.00 | 24 | 1008.9 |
| 20260502042734 | 78 | 256 | 0.0 | 0.0 | 0.00 | 0.00 | 0.00 | 25 | 1008.9 |
| 20260502042616 | 79 | 256 | 0.0 | 0.0 | 0.00 | 0.00 | 0.00 | 24 | 1008.9 |
| 20260502042524 | 79 | 256 | 0.0 | 0.0 | 0.00 | 0.00 | 0.00 | 24 | 1008.8 |
| 20260502042425 | 79 | 256 | 0.0 | 0.0 | 0.00 | 0.00 | 0.00 | 24 | 1008.9 |
| 20260502042334 | 79 | 256 | 0.0 | 0.0 | 0.00 | 0.00 | 0.00 | 24 | 1008.8 |
| 20260502042221 | 79 | 256 | 0.0 | 0.0 | 0.00 | 0.00 | 0.00 | 24 | 1008.8 |
| 20260502042124 | 79 | 256 | 0.0 | 0.0 | 0.00 | 0.00 | 0.00 | 24 | 1008.9 |
| 20260502042034 | 79 | 256 | 0.0 | 0.0 | 0.00 | 0.00 | 0.00 | 24 | 1008.9 |
| 20260502041935 | 79 | 256 | 0.0 | 0.0 | 0.00 | 0.00 | 0.00 | 24 | 1008.8 |
| 20260502041838 | 79 | 256 | 0.0 | 0.0 | 0.00 | 0.00 | 0.00 | 24 | 1008.9 |
| 20260502041727 | 79 | 256 | 0.0 | 0.0 | 0.00 | 0.00 | 0.00 | 24 | 1008.9 |
| 20260502041629 | 79 | 256 | 0.0 | 0.0 | 0.00 | 0.00 | 0.00 | 24 | 1008.9 |
| 20260502041541 | 79 | 256 | 0.0 | 0.0 | 0.00 | 0.00 | 0.00 | 24 | 1009.0 |
| 20260502041443 | 79 | 256 | 0.0 | 0.0 | 0.00 | 0.00 | 0.00 | 24 | 1009.0 |
| 20260502041332 | 79 | 256 | 0.0 | 0.0 | 0.00 | 0.00 | 0.00 | 24 | 1008.9 |
| 20260502041234 | 79 | 256 | 0.0 | 0.0 | 0.00 | 0.00 | 0.00 | 24 | 1009.0 |
| 20260502041141 | 79 | 256 | 0.0 | 0.0 | 0.00 | 0.00 | 0.00 | 24 | 1008.9 |
| 20260502041023 | 79 | 256 | 0.0 | 0.0 | 0.00 | 0.00 | 0.00 | 24 | 1009.0 |
| 20260502040930 | 79 | 256 | 0.0 | 0.0 | 0.00 | 0.00 | 0.00 | 24 | 1009.0 |
| 20260502040830 | 79 | 256 | 0.0 | 0.0 | 0.00 | 0.00 | 0.00 | 24 | 1009.0 |
| 20260502040739 | 79 | 256 | 0.0 | 0.0 | 0.00 | 0.00 | 0.00 | 23 | 1009.0 |
| 20260502040621 | 79 | 256 | 0.0 | 0.0 | 0.00 | 0.00 | 0.00 | 22 | 1009.0 |
| 20260502040523 | 79 | 256 | 0.0 | 0.0 | 0.00 | 0.00 | 0.00 | 22 | 1009.0 |
| 20260502040425 | 79 | 256 | 0.0 | 0.0 | 0.00 | 0.00 | 0.00 | 22 | 1008.9 |
| 20260502040316 | 79 | 256 | 0.0 | 0.0 | 0.00 | 0.00 | 0.00 | 22 | 1008.8 |
| 20260502040246 | 79 | 256 | 0.0 | 0.0 | 0.00 | 0.00 | 0.00 | 22 | 1008.8 |
| 20260502040146 | 79 | 256 | 0.0 | 0.0 | 0.00 | 0.00 | 0.00 | 22 | 1008.8 |
| 20260502040048 | 79 | 256 | 0.0 | 0.0 | 0.00 | 0.00 | 0.00 | 22 | 1008.8 |
| 20260502035919 | 80 | 256 | 0.0 | 0.0 | 0.00 | 0.00 | 0.00 | 22 | 1008.8 |
| 20260502035822 | 80 | 256 | 0.0 | 0.0 | 0.00 | 0.00 | 0.00 | 21 | 1008.8 |
| 20260502035732 | 80 | 256 | 0.0 | 0.0 | 0.00 | 0.00 | 0.00 | 21 | 1008.8 |
| 20260502035618 | 80 | 256 | 0.0 | 0.0 | 0.00 | 0.00 | 0.00 | 20 | 1008.8 |
| 20260502035520 | 80 | 256 | 0.0 | 0.0 | 0.00 | 0.00 | 0.00 | 20 | 1008.8 |
| 20260502035429 | 80 | 256 | 0.0 | 0.0 | 0.00 | 0.00 | 0.00 | 20 | 1008.8 |
| 20260502035331 | 80 | 256 | 0.0 | 0.0 | 0.00 | 0.00 | 0.00 | 20 | 1008.8 |
| 20260502035234 | 80 | 256 | 0.0 | 0.0 | 0.00 | 0.00 | 0.00 | 20 | 1008.8 |
| 20260502035143 | 81 | 256 | 0.0 | 0.0 | 0.00 | 0.00 | 0.00 | 19 | 1008.8 |
| 20260502035051 | 81 | 256 | 0.0 | 0.0 | 0.00 | 0.00 | 0.00 | 20 | 1008.9 |
| 20260502034937 | 81 | 256 | 0.0 | 0.0 | 0.00 | 0.00 | 0.00 | 19 | 1008.8 |
| 20260502034818 | 81 | 256 | 0.0 | 0.0 | 0.00 | 0.00 | 0.00 | 19 | 1008.8 |
| 20260502034727 | 81 | 256 | 0.0 | 0.0 | 0.00 | 0.00 | 0.00 | 19 | 1008.9 |
| 20260502034630 | 81 | 256 | 0.0 | 0.0 | 0.00 | 0.00 | 0.00 | 19 | 1008.9 |
| 20260502034533 | 81 | 256 | 0.0 | 0.0 | 0.00 | 0.00 | 0.00 | 19 | 1008.8 |
| 20260502034442 | 81 | 256 | 0.0 | 0.0 | 0.00 | 0.00 | 0.00 | 19 | 1008.8 |
| 20260502034344 | 82 | 256 | 0.0 | 0.0 | 0.00 | 0.00 | 0.00 | 19 | 1008.8 |
| 20260502034237 | 82 | 256 | 0.0 | 0.0 | 0.00 | 0.00 | 0.00 | 19 | 1008.7 |
| 20260502034140 | 82 | 256 | 0.0 | 0.0 | 0.00 | 0.00 | 0.00 | 19 | 1008.8 |
| 20260502034022 | 82 | 256 | 0.0 | 0.0 | 0.00 | 0.00 | 0.00 | 19 | 1008.7 |
| 20260502033951 | 82 | 256 | 0.0 | 0.0 | 0.00 | 0.00 | 0.00 | 19 | 1008.7 |
| 20260502033832 | 82 | 256 | 0.0 | 0.0 | 0.00 | 0.00 | 0.00 | 19 | 1008.7 |
| 20260502033742 | 82 | 256 | 0.0 | 0.0 | 0.00 | 0.00 | 0.00 | 19 | 1008.7 |
| 20260502033629 | 82 | 256 | 0.0 | 0.0 | 0.00 | 0.00 | 0.00 | 19 | 1008.7 |
| 20260502033531 | 82 | 256 | 0.0 | 0.0 | 0.00 | 0.00 | 0.00 | 19 | 1008.6 |
| 20260502033442 | 82 | 256 | 0.0 | 0.0 | 0.00 | 0.00 | 0.00 | 19 | 1008.5 |
| 20260502033342 | 82 | 256 | 0.0 | 0.0 | 0.00 | 0.00 | 0.00 | 19 | 1008.5 |
| 20260502033224 | 82 | 256 | 0.0 | 0.0 | 0.00 | 0.00 | 0.00 | 19 | 1008.5 |
| 20260502033126 | 82 | 256 | 0.0 | 0.0 | 0.00 | 0.00 | 0.00 | 19 | 1008.4 |
| 20260502033039 | 82 | 256 | 0.0 | 0.0 | 0.00 | 0.00 | 0.00 | 19 | 1008.5 |
| 20260502032920 | 82 | 256 | 0.0 | 0.0 | 0.00 | 0.00 | 0.00 | 19 | 1008.4 |
| 20260502032821 | 82 | 256 | 0.0 | 0.0 | 0.00 | 0.00 | 0.00 | 19 | 1008.4 |
| 20260502032752 | 82 | 256 | 0.0 | 0.0 | 0.00 | 0.00 | 0.00 | 19 | 1008.6 |
| 20260502032633 | 82 | 256 | 0.0 | 0.0 | 0.00 | 0.00 | 0.00 | 19 | 1008.6 |
| 20260502032542 | 82 | 256 | 0.0 | 0.0 | 0.00 | 0.00 | 0.00 | 19 | 1008.5 |
| 20260502032424 | 82 | 256 | 0.0 | 0.0 | 0.00 | 0.00 | 0.00 | 19 | 1008.5 |
| 20260502032338 | 83 | 256 | 0.0 | 0.0 | 0.00 | 0.00 | 0.00 | 19 | 1008.4 |
| 20260502032220 | 83 | 256 | 0.0 | 0.0 | 0.00 | 0.00 | 0.00 | 19 | 1008.4 |
| 20260502032123 | 83 | 256 | 0.0 | 0.0 | 0.00 | 0.00 | 0.00 | 18 | 1008.4 |
| 20260502032053 | 83 | 256 | 0.0 | 0.0 | 0.00 | 0.00 | 0.00 | 18 | 1008.4 |
| 20260502031955 | 83 | 256 | 0.0 | 0.0 | 0.00 | 0.00 | 0.00 | 18 | 1008.3 |
| 20260502031816 | 83 | 256 | 0.0 | 0.0 | 0.00 | 0.00 | 0.00 | 18 | 1008.4 |
| 20260502031726 | 83 | 256 | 0.0 | 0.0 | 0.00 | 0.00 | 0.00 | 18 | 1008.4 |
| 20260502031633 | 83 | 256 | 0.0 | 0.0 | 0.00 | 0.00 | 0.00 | 18 | 1008.4 |
| 20260502031534 | 83 | 256 | 0.0 | 0.0 | 0.00 | 0.00 | 0.00 | 18 | 1008.4 |
| 20260502031425 | 83 | 256 | 0.0 | 0.0 | 0.00 | 0.00 | 0.00 | 18 | 1008.4 |
| 20260502031327 | 83 | 256 | 0.0 | 0.0 | 0.00 | 0.00 | 0.00 | 18 | 1008.3 |
| 20260502031230 | 83 | 256 | 0.0 | 0.0 | 0.00 | 0.00 | 0.00 | 18 | 1008.2 |
| 20260502031116 | 83 | 256 | 0.0 | 0.0 | 0.00 | 0.00 | 0.00 | 18 | 1008.3 |
| 20260502031026 | 83 | 256 | 0.0 | 0.0 | 0.00 | 0.00 | 0.00 | 18 | 1008.2 |
| 20260502030949 | 83 | 256 | 0.0 | 0.0 | 0.00 | 0.00 | 0.00 | 18 | 1008.3 |
| 20260502030838 | 83 | 256 | 0.0 | 0.0 | 0.00 | 0.00 | 0.00 | 18 | 1008.3 |
| 20260502030741 | 83 | 256 | 0.0 | 0.0 | 0.00 | 0.00 | 0.00 | 18 | 1008.4 |
| 20260502030648 | 83 | 256 | 0.0 | 0.0 | 0.00 | 0.00 | 0.00 | 18 | 1008.4 |
| 20260502030521 | 84 | 256 | 0.0 | 0.0 | 0.00 | 0.00 | 0.00 | 18 | 1008.4 |
| 20260502030427 | 83 | 256 | 0.0 | 0.0 | 0.00 | 0.00 | 0.00 | 18 | 1008.3 |
| 20260502030337 | 83 | 256 | 0.0 | 0.0 | 0.00 | 0.00 | 0.00 | 18 | 1008.2 |
| 20260502030235 | 84 | 256 | 0.0 | 0.0 | 0.00 | 0.00 | 0.00 | 18 | 1008.1 |
| 20260502030118 | 84 | 256 | 0.0 | 0.0 | 0.00 | 0.00 | 0.00 | 18 | 1008.1 |
| 20260502030032 | 84 | 256 | 0.0 | 0.0 | 0.00 | 0.00 | 0.00 | 18 | 1008.1 |
| 20260502025927 | 84 | 256 | 0.0 | 0.0 | 0.00 | 0.00 | 0.00 | 18 | 1008.2 |
| 20260502025833 | 84 | 256 | 0.0 | 0.0 | 0.00 | 0.00 | 0.00 | 18 | 1008.2 |
| 20260502025715 | 84 | 256 | 0.0 | 0.0 | 0.00 | 0.00 | 0.00 | 18 | 1008.1 |
| 20260502025646 | 84 | 256 | 0.0 | 0.0 | 0.00 | 0.00 | 0.00 | 18 | 1008.2 |
| 20260502025554 | 84 | 256 | 0.0 | 0.0 | 0.00 | 0.00 | 0.00 | 18 | 1008.2 |
| 20260502025416 | 84 | 256 | 0.0 | 0.0 | 0.00 | 0.00 | 0.00 | 18 | 1008.2 |
| 20260502025319 | 84 | 256 | 0.0 | 0.0 | 0.00 | 0.00 | 0.00 | 18 | 1008.2 |
| 20260502025227 | 84 | 256 | 0.0 | 0.0 | 0.00 | 0.00 | 0.00 | 18 | 1008.2 |
| 20260502025133 | 84 | 256 | 0.0 | 0.0 | 0.00 | 0.00 | 0.00 | 18 | 1008.1 |
| 20260502025016 | 84 | 256 | 0.0 | 0.0 | 0.00 | 0.00 | 0.00 | 17 | 1008.1 |
| 20260502024926 | 84 | 256 | 0.0 | 0.0 | 0.00 | 0.00 | 0.00 | 18 | 1008.1 |
| 20260502024827 | 84 | 256 | 0.0 | 0.0 | 0.00 | 0.00 | 0.00 | 18 | 1008.2 |
| 20260502024737 | 84 | 256 | 0.0 | 0.0 | 0.00 | 0.00 | 0.00 | 17 | 1008.1 |
| 20260502024619 | 84 | 256 | 0.0 | 0.0 | 0.00 | 0.00 | 0.00 | 18 | 1008.1 |
| 20260502024521 | 84 | 256 | 0.0 | 0.0 | 0.00 | 0.00 | 0.00 | 18 | 1008.1 |
| 20260502024435 | 84 | 256 | 0.0 | 0.0 | 0.00 | 0.00 | 0.00 | 18 | 1008.1 |
| 20260502024316 | 85 | 256 | 0.0 | 0.0 | 0.00 | 0.00 | 0.00 | 18 | 1008.1 |
| 20260502024246 | 85 | 256 | 0.0 | 0.0 | 0.00 | 0.00 | 0.00 | 18 | 1008.1 |
| 20260502024127 | 85 | 256 | 0.0 | 0.0 | 0.00 | 0.00 | 0.00 | 18 | 1008.0 |
| 20260502024029 | 85 | 256 | 0.0 | 0.0 | 0.00 | 0.00 | 0.00 | 18 | 1008.0 |
| 20260502023939 | 85 | 256 | 0.0 | 0.0 | 0.00 | 0.00 | 0.00 | 18 | 1008.0 |
| 20260502023826 | 85 | 256 | 0.0 | 0.0 | 0.00 | 0.00 | 0.00 | 17 | 1008.0 |
| 20260502023729 | 85 | 256 | 0.0 | 0.0 | 0.00 | 0.00 | 0.00 | 17 | 1008.0 |
| 20260502023632 | 85 | 256 | 0.0 | 0.0 | 0.00 | 0.00 | 0.00 | 17 | 1008.0 |
| 20260502023540 | 85 | 256 | 0.0 | 0.0 | 0.00 | 0.00 | 0.00 | 18 | 1007.9 |
| 20260502023442 | 85 | 256 | 0.0 | 0.0 | 0.00 | 0.00 | 0.00 | 17 | 1007.9 |
| 20260502023323 | 86 | 256 | 0.0 | 0.0 | 0.00 | 0.00 | 0.00 | 17 | 1007.9 |
| 20260502023231 | 86 | 256 | 0.0 | 0.0 | 0.00 | 0.00 | 0.00 | 17 | 1007.9 |
| 20260502023144 | 86 | 256 | 0.0 | 0.0 | 0.00 | 0.00 | 0.00 | 17 | 1007.9 |
| 20260502023026 | 86 | 256 | 0.0 | 0.0 | 0.00 | 0.00 | 0.00 | 17 | 1007.9 |
| 20260502022927 | 86 | 256 | 0.0 | 0.0 | 0.00 | 0.00 | 0.00 | 17 | 1007.9 |
| 20260502022838 | 86 | 256 | 0.0 | 0.0 | 0.00 | 0.00 | 0.00 | 18 | 1007.9 |
| 20260502022718 | 86 | 256 | 0.0 | 0.0 | 0.00 | 0.00 | 0.00 | 17 | 1007.9 |
| 20260502022621 | 86 | 256 | 0.0 | 0.0 | 0.00 | 0.00 | 0.00 | 17 | 1007.9 |
| 20260502022535 | 86 | 256 | 0.0 | 0.0 | 0.00 | 0.00 | 0.00 | 17 | 1007.9 |
| 20260502022418 | 86 | 256 | 0.0 | 0.0 | 0.00 | 0.00 | 0.00 | 18 | 1007.9 |
| 20260502022321 | 86 | 256 | 0.0 | 0.0 | 0.00 | 0.00 | 0.00 | 18 | 1007.8 |
| 20260502022230 | 86 | 256 | 0.0 | 0.0 | 0.00 | 0.00 | 0.00 | 17 | 1007.9 |
| 20260502022134 | 86 | 256 | 0.0 | 0.0 | 0.00 | 0.00 | 0.00 | 17 | 1007.8 |
| 20260502022016 | 86 | 256 | 0.0 | 0.0 | 0.00 | 0.00 | 0.00 | 17 | 1007.7 |
| 20260502021922 | 86 | 256 | 0.0 | 0.0 | 0.00 | 0.00 | 0.00 | 18 | 1007.8 |
| 20260502021832 | 86 | 256 | 0.0 | 0.0 | 0.00 | 0.00 | 0.00 | 18 | 1007.8 |
| 20260502021735 | 86 | 256 | 0.0 | 0.0 | 0.00 | 0.00 | 0.00 | 17 | 1007.8 |
| 20260502021617 | 86 | 256 | 0.0 | 0.0 | 0.00 | 0.00 | 0.00 | 17 | 1007.8 |
| 20260502021520 | 86 | 256 | 0.0 | 0.0 | 0.00 | 0.00 | 0.00 | 18 | 1007.8 |
| 20260502021430 | 86 | 256 | 0.0 | 0.0 | 0.00 | 0.00 | 0.00 | 17 | 1007.8 |
| 20260502021316 | 86 | 256 | 0.0 | 0.0 | 0.00 | 0.00 | 0.00 | 18 | 1007.8 |
| 20260502021219 | 87 | 256 | 0.0 | 0.0 | 0.00 | 0.00 | 0.00 | 18 | 1007.9 |
| 20260502021128 | 87 | 256 | 0.0 | 0.0 | 0.00 | 0.00 | 0.00 | 17 | 1007.9 |
| 20260502021032 | 87 | 256 | 0.0 | 0.0 | 0.00 | 0.00 | 0.00 | 18 | 1007.9 |
| 20260502020934 | 87 | 256 | 0.0 | 0.0 | 0.00 | 0.00 | 0.00 | 18 | 1007.9 |
| 20260502020820 | 87 | 256 | 0.0 | 0.0 | 0.00 | 0.00 | 0.00 | 18 | 1007.9 |
| 20260502020730 | 87 | 256 | 0.0 | 0.0 | 0.00 | 0.00 | 0.00 | 18 | 1007.9 |
| 20260502020632 | 87 | 256 | 0.0 | 0.0 | 0.00 | 0.00 | 0.00 | 18 | 1007.8 |
| 20260502020601 | 87 | 256 | 0.0 | 0.0 | 0.00 | 0.00 | 0.00 | 17 | 1007.8 |
| 20260502020422 | 87 | 256 | 0.0 | 0.0 | 0.00 | 0.00 | 0.00 | 18 | 1007.7 |
| 20260502020325 | 87 | 256 | 0.0 | 0.0 | 0.00 | 0.00 | 0.00 | 18 | 1007.7 |
| 20260502020236 | 87 | 256 | 0.0 | 0.0 | 0.00 | 0.00 | 0.00 | 18 | 1007.7 |
| 20260502020121 | 87 | 256 | 0.0 | 0.0 | 0.00 | 0.00 | 0.00 | 18 | 1007.7 |
| 20260502020034 | 87 | 256 | 0.0 | 0.0 | 0.00 | 0.00 | 0.00 | 17 | 1007.6 |
| 20260502015953 | 87 | 256 | 0.0 | 0.0 | 0.00 | 0.00 | 0.00 | 17 | 1007.6 |
| 20260502015835 | 87 | 256 | 0.0 | 0.0 | 0.00 | 0.00 | 0.00 | 18 | 1007.6 |
| 20260502015717 | 87 | 256 | 0.0 | 0.0 | 0.00 | 0.00 | 0.00 | 17 | 1007.7 |
| 20260502015626 | 87 | 256 | 0.0 | 0.0 | 0.00 | 0.00 | 0.00 | 18 | 1007.6 |
| 20260502015532 | 87 | 256 | 0.0 | 0.0 | 0.00 | 0.00 | 0.00 | 17 | 1007.6 |
| 20260502015440 | 87 | 256 | 0.0 | 0.0 | 0.00 | 0.00 | 0.00 | 18 | 1007.8 |
| 20260502015342 | 88 | 256 | 0.0 | 0.0 | 0.00 | 0.00 | 0.00 | 17 | 1007.7 |
| 20260502015224 | 88 | 256 | 0.0 | 0.0 | 0.00 | 0.00 | 0.00 | 17 | 1007.7 |
| 20260502015133 | 88 | 256 | 0.0 | 0.0 | 0.00 | 0.00 | 0.00 | 17 | 1007.7 |
| 20260502015035 | 88 | 256 | 0.0 | 0.0 | 0.00 | 0.00 | 0.00 | 17 | 1007.8 |
| 20260502014920 | 88 | 256 | 0.0 | 0.0 | 0.00 | 0.00 | 0.00 | 17 | 1007.8 |
| 20260502014829 | 88 | 256 | 0.0 | 0.0 | 0.00 | 0.00 | 0.00 | 17 | 1007.7 |
| 20260502014730 | 88 | 256 | 0.0 | 0.0 | 0.00 | 0.00 | 0.00 | 17 | 1007.7 |
| 20260502014639 | 88 | 256 | 0.0 | 0.0 | 0.00 | 0.00 | 0.00 | 17 | 1007.7 |
| 20260502014521 | 88 | 256 | 0.0 | 0.0 | 0.00 | 0.00 | 0.00 | 17 | 1007.6 |
| 20260502014450 | 88 | 256 | 0.0 | 0.0 | 0.00 | 0.00 | 0.00 | 17 | 1007.6 |
| 20260502014331 | 88 | 256 | 0.0 | 0.0 | 0.00 | 0.00 | 0.00 | 17 | 1007.7 |
| 20260502014217 | 88 | 256 | 0.0 | 0.0 | 0.00 | 0.00 | 0.00 | 17 | 1007.7 |
| 20260502014119 | 88 | 256 | 0.0 | 0.0 | 0.00 | 0.00 | 0.00 | 17 | 1007.6 |
| 20260502014029 | 88 | 256 | 0.0 | 0.0 | 0.00 | 0.00 | 0.00 | 18 | 1007.6 |
| 20260502013932 | 88 | 256 | 0.0 | 0.0 | 0.00 | 0.00 | 0.00 | 17 | 1007.6 |
| 20260502013841 | 88 | 256 | 0.0 | 0.0 | 0.00 | 0.00 | 0.00 | 18 | 1007.6 |
| 20260502013744 | 88 | 256 | 0.0 | 0.0 | 0.00 | 0.00 | 0.00 | 17 | 1007.7 |
| 20260502013625 | 88 | 256 | 0.0 | 0.0 | 0.00 | 0.00 | 0.00 | 17 | 1007.7 |
| 20260502013539 | 88 | 256 | 0.0 | 0.0 | 0.00 | 0.00 | 0.00 | 18 | 1007.7 |
| 20260502013422 | 89 | 256 | 0.0 | 0.0 | 0.00 | 0.00 | 0.00 | 17 | 1007.8 |
| 20260502013324 | 89 | 256 | 0.0 | 0.0 | 0.00 | 0.00 | 0.00 | 17 | 1007.7 |
| 20260502013233 | 89 | 256 | 0.0 | 0.0 | 0.00 | 0.00 | 0.00 | 17 | 1007.7 |
| 20260502013134 | 89 | 256 | 0.0 | 0.0 | 0.00 | 0.00 | 0.00 | 17 | 1007.6 |
| 20260502013016 | 89 | 256 | 0.0 | 0.0 | 0.00 | 0.00 | 0.00 | 17 | 1007.6 |
| 20260502012929 | 89 | 256 | 0.0 | 0.0 | 0.00 | 0.00 | 0.00 | 17 | 1007.7 |
| 20260502012832 | 89 | 256 | 0.0 | 0.0 | 0.00 | 0.00 | 0.00 | 17 | 1007.6 |
| 20260502012742 | 89 | 256 | 0.0 | 0.0 | 0.00 | 0.00 | 0.00 | 17 | 1007.6 |
| 20260502012643 | 89 | 256 | 0.0 | 0.0 | 0.00 | 0.00 | 0.00 | 17 | 1007.6 |
| 20260502012525 | 89 | 256 | 0.0 | 0.0 | 0.00 | 0.00 | 0.00 | 17 | 1007.6 |
| 20260502012434 | 89 | 256 | 0.0 | 0.0 | 0.00 | 0.00 | 0.00 | 17 | 1007.6 |
| 20260502012320 | 89 | 256 | 0.0 | 0.0 | 0.00 | 0.00 | 0.00 | 17 | 1007.6 |
| 20260502012222 | 89 | 256 | 0.0 | 0.0 | 0.00 | 0.00 | 0.00 | 17 | 1007.6 |
| 20260502012132 | 89 | 256 | 0.0 | 0.0 | 0.00 | 0.00 | 0.00 | 17 | 1007.6 |
| 20260502012034 | 89 | 256 | 0.0 | 0.0 | 0.00 | 0.00 | 0.00 | 17 | 1007.6 |
| 20260502011935 | 89 | 256 | 0.0 | 1.0 | 0.00 | 0.00 | 0.00 | 17 | 1007.6 |
| 20260502011817 | 89 | 256 | 0.0 | 1.0 | 0.00 | 0.00 | 0.00 | 17 | 1007.7 |
| 20260502011730 | 89 | 256 | 0.0 | 1.0 | 0.00 | 0.00 | 0.00 | 17 | 1007.7 |
| 20260502011633 | 89 | 256 | 0.0 | 1.0 | 0.00 | 0.00 | 0.00 | 17 | 1007.7 |
| 20260502011516 | 89 | 257 | 0.0 | 1.0 | 0.00 | 0.00 | 0.00 | 17 | 1007.7 |
| 20260502011425 | 89 | 257 | 0.0 | 1.0 | 0.00 | 0.00 | 0.00 | 18 | 1007.8 |
| 20260502011347 | 89 | 257 | 0.0 | 1.0 | 0.00 | 0.00 | 0.00 | 18 | 1007.8 |
| 20260502011237 | 89 | 257 | 0.0 | 1.0 | 0.00 | 0.00 | 0.00 | 17 | 1007.8 |
| 20260502011118 | 89 | 259 | 0.0 | 1.0 | 0.00 | 0.00 | 0.00 | 17 | 1007.8 |
| 20260502011025 | 90 | 259 | 0.0 | 1.0 | 0.00 | 0.00 | 0.00 | 17 | 1007.8 |
| 20260502010933 | 90 | 259 | 0.0 | 0.0 | 0.00 | 0.00 | 0.00 | 17 | 1007.8 |
| 20260502010833 | 90 | 259 | 0.0 | 0.0 | 0.00 | 0.00 | 0.00 | 17 | 1007.8 |
| 20260502010741 | 90 | 259 | 0.0 | 0.0 | 0.00 | 0.00 | 0.00 | 17 | 1007.8 |
| 20260502010623 | 90 | 259 | 0.0 | 0.0 | 0.00 | 0.00 | 0.00 | 18 | 1007.8 |
| 20260502010545 | 90 | 258 | 0.0 | 0.0 | 0.00 | 0.00 | 0.00 | 18 | 1007.8 |
| 20260502010433 | 90 | 258 | 0.0 | 0.0 | 0.00 | 0.00 | 0.00 | 18 | 1007.8 |
| 20260502010319 | 90 | 258 | 0.0 | 0.0 | 0.00 | 0.00 | 0.00 | 18 | 1007.8 |
| 20260502010219 | 90 | 258 | 0.0 | 0.0 | 0.00 | 0.00 | 0.00 | 17 | 1007.8 |
| 20260502010129 | 90 | 258 | 0.0 | 0.0 | 0.00 | 0.00 | 0.00 | 17 | 1007.8 |
| 20260502010111 | 90 | 258 | 0.0 | 0.0 | 0.00 | 0.00 | 0.00 | 17 | 1007.8 |
| 20260502005919 | 90 | 258 | 0.0 | 0.0 | 0.00 | 0.00 | 0.00 | 17 | 1007.7 |
| 20260502005818 | 90 | 258 | 0.0 | 0.0 | 0.00 | 0.00 | 0.00 | 17 | 1007.7 |
| 20260502005727 | 90 | 258 | 0.0 | 0.0 | 0.00 | 0.00 | 0.00 | 17 | 1007.8 |
| 20260502005634 | 90 | 258 | 0.0 | 0.0 | 0.00 | 0.00 | 0.00 | 17 | 1007.7 |
| 20260502005516 | 90 | 258 | 0.0 | 0.0 | 0.00 | 0.00 | 0.00 | 17 | 1007.8 |
| 20260502005445 | 90 | 258 | 0.0 | 0.0 | 0.00 | 0.00 | 0.00 | 18 | 1007.7 |
| 20260502005327 | 90 | 258 | 0.0 | 0.0 | 0.00 | 0.00 | 0.00 | 17 | 1007.7 |
| 20260502005234 | 90 | 258 | 0.0 | 1.0 | 0.00 | 0.00 | 0.00 | 17 | 1007.7 |
| 20260502005115 | 90 | 258 | 0.0 | 3.0 | 0.00 | 0.00 | 0.00 | 17 | 1007.7 |
| 20260502005022 | 90 | 258 | 0.0 | 3.0 | 0.00 | 0.00 | 0.00 | 17 | 1007.7 |
| 20260502004951 | 90 | 258 | 0.0 | 3.0 | 0.00 | 0.00 | 0.00 | 17 | 1007.7 |
| 20260502004833 | 90 | 258 | 0.0 | 3.0 | 0.00 | 0.00 | 0.00 | 17 | 1007.7 |
| 20260502004741 | 90 | 258 | 0.0 | 3.0 | 0.00 | 0.00 | 0.00 | 17 | 1007.8 |
| 20260502004624 | 90 | 305 | 0.0 | 4.0 | 0.00 | 0.00 | 0.00 | 17 | 1007.8 |
| 20260502004526 | 90 | 305 | 0.0 | 4.0 | 0.00 | 0.00 | 0.00 | 17 | 1007.8 |
| 20260502004436 | 90 | 221 | 1.0 | 4.0 | 0.00 | 0.00 | 0.00 | 17 | 1007.8 |
| 20260502004322 | 90 | 221 | 0.0 | 4.0 | 0.00 | 0.00 | 0.00 | 18 | 1007.8 |
| 20260502004225 | 90 | 223 | 0.0 | 4.0 | 0.00 | 0.00 | 0.00 | 17 | 1007.8 |
| 20260502004132 | 90 | 224 | 0.0 | 4.0 | 0.00 | 0.00 | 0.00 | 17 | 1007.9 |
| 20260502004035 | 90 | 224 | 0.0 | 4.0 | 0.00 | 0.00 | 0.00 | 17 | 1007.8 |
| 20260502003916 | 90 | 234 | 0.0 | 4.0 | 0.00 | 0.00 | 0.00 | 18 | 1007.8 |
| 20260502003847 | 90 | 233 | 0.0 | 0.0 | 0.00 | 0.00 | 0.00 | 17 | 1007.8 |
| 20260502003727 | 90 | 234 | 0.0 | 0.0 | 0.00 | 0.00 | 0.00 | 18 | 1007.7 |
| 20260502003621 | 90 | 233 | 0.0 | 0.0 | 0.00 | 0.00 | 0.00 | 17 | 1007.8 |
| 20260502003524 | 90 | 233 | 0.0 | 0.0 | 0.00 | 0.00 | 0.00 | 17 | 1007.8 |
| 20260502003427 | 90 | 233 | 0.0 | 0.0 | 0.00 | 0.00 | 0.00 | 17 | 1007.9 |
| 20260502003337 | 90 | 233 | 0.0 | 0.0 | 0.00 | 0.00 | 0.00 | 18 | 1007.9 |
| 20260502003240 | 90 | 234 | 0.0 | 0.0 | 0.00 | 0.00 | 0.00 | 18 | 1007.8 |
| 20260502003122 | 90 | 234 | 0.0 | 0.0 | 0.00 | 0.00 | 0.00 | 18 | 1007.8 |
| 20260502003054 | 90 | 234 | 0.0 | 0.0 | 0.00 | 0.00 | 0.00 | 18 | 1007.7 |
| 20260502002935 | 90 | 234 | 0.0 | 0.0 | 0.00 | 0.00 | 0.00 | 18 | 1007.8 |
| 20260502002845 | 90 | 234 | 0.0 | 0.0 | 0.00 | 0.00 | 0.00 | 18 | 1007.8 |
| 20260502002725 | 90 | 234 | 0.0 | 0.0 | 0.00 | 0.00 | 0.00 | 18 | 1007.8 |
| 20260502002634 | 90 | 234 | 0.0 | 0.0 | 0.00 | 0.00 | 0.00 | 18 | 1007.8 |
| 20260502002536 | 90 | 234 | 0.0 | 0.0 | 0.00 | 0.00 | 0.00 | 18 | 1007.7 |
| 20260502002417 | 90 | 233 | 0.0 | 0.0 | 0.00 | 0.00 | 0.00 | 18 | 1007.8 |
| 20260502002332 | 90 | 233 | 0.0 | 0.0 | 0.00 | 0.00 | 0.00 | 18 | 1007.8 |